Wetterdaten: Donnerstag, 12.12.2013
Datum Zeit Temp. Aussen +5cm Feuchte Auss Luftdruck Regen Sonnenschein Regendauer UV Solar Windben
12.12.2013 00:00 4,4 C 3,9 C 98 % 1031,2 hPa 0,0 l/m 0 min 0 min 0,0 UV-I 0 W/m 12,9 km/h (3 Bft)
12.12.2013 00:02 4,4 C 3,9 C 98 % 1031,1 hPa 0,0 l/m 0 min 0 min 0,0 UV-I 0 W/m 20,6 km/h (4 Bft)
12.12.2013 00:06 4,4 C 3,9 C 98 % 1031,1 hPa 0,0 l/m 0 min 0 min 0,0 UV-I 0 W/m 20,6 km/h (4 Bft)
12.12.2013 00:08 4,4 C 3,9 C 98 % 1031,1 hPa 0,0 l/m 0 min 0 min 0,0 UV-I 0 W/m 12,9 km/h (3 Bft)
12.12.2013 00:10 4,4 C 3,9 C 98 % 1031,0 hPa 0,0 l/m 0 min 0 min 0,0 UV-I 0 W/m 18,0 km/h (3 Bft)
12.12.2013 00:12 4,4 C 3,9 C 98 % 1031,0 hPa 0,0 l/m 0 min 0 min 0,0 UV-I 0 W/m 20,6 km/h (4 Bft)
12.12.2013 00:14 4,4 C 3,9 C 98 % 1031,1 hPa 0,0 l/m 0 min 0 min 0,0 UV-I 0 W/m 20,6 km/h (4 Bft)
12.12.2013 00:16 4,4 C 3,9 C 98 % 1031,0 hPa 0,0 l/m 0 min 0 min 0,0 UV-I 0 W/m 25,7 km/h (4 Bft)
12.12.2013 00:18 4,4 C 3,3 C 98 % 1031,0 hPa 0,0 l/m 0 min 0 min 0,0 UV-I 0 W/m 25,7 km/h (4 Bft)
12.12.2013 00:20 4,4 C 3,3 C 98 % 1031,0 hPa 0,0 l/m 0 min 0 min 0,0 UV-I 0 W/m 23,2 km/h (4 Bft)
12.12.2013 00:22 4,4 C 3,3 C 98 % 1031,0 hPa 0,0 l/m 0 min 0 min 0,0 UV-I 0 W/m 18,0 km/h (3 Bft)
12.12.2013 00:24 4,4 C 3,3 C 98 % 1031,0 hPa 0,0 l/m 0 min 0 min 0,0 UV-I 0 W/m 20,6 km/h (4 Bft)
12.12.2013 00:26 4,4 C 3,3 C 98 % 1031,0 hPa 0,0 l/m 0 min 0 min 0,0 UV-I 0 W/m 18,0 km/h (3 Bft)
12.12.2013 00:28 4,4 C 3,3 C 98 % 1030,9 hPa 0,0 l/m 0 min 0 min 0,0 UV-I 0 W/m 18,0 km/h (3 Bft)
12.12.2013 00:30 4,4 C 3,3 C 98 % 1030,9 hPa 0,0 l/m 0 min 0 min 0,0 UV-I 0 W/m 23,2 km/h (4 Bft)
12.12.2013 00:32 4,4 C 3,3 C 98 % 1030,9 hPa 0,0 l/m 0 min 0 min 0,0 UV-I 0 W/m 18,0 km/h (3 Bft)
12.12.2013 00:34 4,4 C 3,3 C 98 % 1031,0 hPa 0,0 l/m 0 min 0 min 0,0 UV-I 0 W/m 18,0 km/h (3 Bft)
12.12.2013 00:36 4,4 C 3,3 C 98 % 1031,0 hPa 0,0 l/m 0 min 0 min 0,0 UV-I 0 W/m 15,4 km/h (3 Bft)
12.12.2013 00:38 4,4 C 3,3 C 98 % 1030,9 hPa 0,0 l/m 0 min 0 min 0,0 UV-I 0 W/m 23,2 km/h (4 Bft)
12.12.2013 00:40 4,4 C 3,3 C 98 % 1030,9 hPa 0,0 l/m 0 min 0 min 0,0 UV-I 0 W/m 10,3 km/h (2 Bft)
12.12.2013 00:42 4,4 C 3,3 C 98 % 1030,8 hPa 0,0 l/m 0 min 0 min 0,0 UV-I 0 W/m 18,0 km/h (3 Bft)
12.12.2013 00:44 4,4 C 3,3 C 98 % 1030,8 hPa 0,0 l/m 0 min 0 min 0,0 UV-I 0 W/m 7,7 km/h (2 Bft)
12.12.2013 00:46 4,4 C 3,3 C 98 % 1030,8 hPa 0,0 l/m 0 min 0 min 0,0 UV-I 0 W/m 12,9 km/h (3 Bft)
12.12.2013 00:48 4,4 C 3,3 C 98 % 1030,8 hPa 0,0 l/m 0 min 0 min 0,0 UV-I 0 W/m 10,3 km/h (2 Bft)
12.12.2013 00:50 4,4 C 3,3 C 98 % 1030,8 hPa 0,0 l/m 0 min 0 min 0,0 UV-I 0 W/m 12,9 km/h (3 Bft)
12.12.2013 00:52 4,4 C 3,3 C 98 % 1030,9 hPa 0,0 l/m 0 min 0 min 0,0 UV-I 0 W/m 15,4 km/h (3 Bft)
12.12.2013 00:54 4,4 C 3,3 C 98 % 1030,9 hPa 0,0 l/m 0 min 0 min 0,0 UV-I 0 W/m 10,3 km/h (2 Bft)
12.12.2013 00:56 4,4 C 3,3 C 98 % 1030,8 hPa 0,0 l/m 0 min 0 min 0,0 UV-I 0 W/m 20,6 km/h (4 Bft)
12.12.2013 00:58 4,4 C 3,3 C 98 % 1030,9 hPa 0,0 l/m 0 min 0 min 0,0 UV-I 0 W/m 18,0 km/h (3 Bft)
12.12.2013 01:00 4,4 C 3,3 C 98 % 1030,8 hPa 0,0 l/m 0 min 0 min 0,0 UV-I 0 W/m 18,0 km/h (3 Bft)
12.12.2013 01:02 4,4 C 3,3 C 98 % 1030,8 hPa 0,0 l/m 0 min 0 min 0,0 UV-I 0 W/m 18,0 km/h (3 Bft)
12.12.2013 01:04 4,3 C 3,3 C 98 % 1030,8 hPa 0,0 l/m 0 min 0 min 0,0 UV-I 0 W/m 12,9 km/h (3 Bft)
12.12.2013 01:06 4,3 C 3,3 C 98 % 1030,8 hPa 0,0 l/m 0 min 0 min 0,0 UV-I 0 W/m 12,9 km/h (3 Bft)
12.12.2013 01:08 4,4 C 3,3 C 98 % 1030,9 hPa 0,0 l/m 0 min 0 min 0,0 UV-I 0 W/m 18,0 km/h (3 Bft)
12.12.2013 01:10 4,3 C 3,3 C 98 % 1030,8 hPa 0,0 l/m 0 min 0 min 0,0 UV-I 0 W/m 10,3 km/h (2 Bft)
12.12.2013 01:12 4,3 C 3,3 C 98 % 1030,8 hPa 0,0 l/m 0 min 0 min 0,0 UV-I 0 W/m 12,9 km/h (3 Bft)
12.12.2013 01:14 4,3 C 3,3 C 98 % 1030,8 hPa 0,0 l/m 0 min 0 min 0,0 UV-I 0 W/m 7,7 km/h (2 Bft)
12.12.2013 01:16 4,3 C 3,3 C 98 % 1030,8 hPa 0,0 l/m 0 min 0 min 0,0 UV-I 0 W/m 12,9 km/h (3 Bft)
12.12.2013 01:18 4,3 C 3,3 C 98 % 1030,8 hPa 0,0 l/m 0 min 0 min 0,0 UV-I 0 W/m 10,3 km/h (2 Bft)
12.12.2013 01:20 4,3 C 3,3 C 98 % 1030,8 hPa 0,0 l/m 0 min 0 min 0,0 UV-I 0 W/m 5,1 km/h (1 Bft)
12.12.2013 01:22 4,3 C 3,3 C 98 % 1030,8 hPa 0,0 l/m 0 min 0 min 0,0 UV-I 0 W/m 10,3 km/h (2 Bft)
12.12.2013 01:24 4,3 C 3,3 C 98 % 1030,9 hPa 0,0 l/m 0 min 0 min 0,0 UV-I 0 W/m 10,3 km/h (2 Bft)
12.12.2013 01:26 4,3 C 3,3 C 98 % 1030,8 hPa 0,0 l/m 0 min 0 min 0,0 UV-I 0 W/m 10,3 km/h (2 Bft)
12.12.2013 01:28 4,3 C 3,3 C 98 % 1030,8 hPa 0,0 l/m 0 min 0 min 0,0 UV-I 0 W/m 2,6 km/h (1 Bft)
12.12.2013 01:30 4,4 C 3,3 C 98 % 1030,8 hPa 0,0 l/m 0 min 0 min 0,0 UV-I 0 W/m 12,9 km/h (3 Bft)
12.12.2013 01:32 4,4 C 3,3 C 98 % 1030,8 hPa 0,0 l/m 0 min 0 min 0,0 UV-I 0 W/m 10,3 km/h (2 Bft)
12.12.2013 01:34 4,4 C 3,9 C 98 % 1030,8 hPa 0,0 l/m 0 min 0 min 0,0 UV-I 0 W/m 5,1 km/h (1 Bft)
12.12.2013 01:36 4,4 C 3,9 C 98 % 1030,8 hPa 0,0 l/m 0 min 0 min 0,0 UV-I 0 W/m 10,3 km/h (2 Bft)
12.12.2013 01:38 4,4 C 3,9 C 98 % 1030,7 hPa 0,0 l/m 0 min 0 min 0,0 UV-I 0 W/m 5,1 km/h (1 Bft)
12.12.2013 01:40 4,4 C 3,9 C 98 % 1030,8 hPa 0,0 l/m 0 min 0 min 0,0 UV-I 0 W/m 2,6 km/h (1 Bft)
12.12.2013 01:42 4,4 C 3,9 C 98 % 1030,8 hPa 0,0 l/m 0 min 0 min 0,0 UV-I 0 W/m 7,7 km/h (2 Bft)
12.12.2013 01:44 4,4 C 3,9 C 98 % 1030,8 hPa 0,0 l/m 0 min 0 min 0,0 UV-I 0 W/m 12,9 km/h (3 Bft)
12.12.2013 01:46 4,4 C 3,9 C 98 % 1030,8 hPa 0,0 l/m 0 min 0 min 0,0 UV-I 0 W/m 12,9 km/h (3 Bft)
12.12.2013 01:48 4,4 C 3,9 C 98 % 1030,7 hPa 0,0 l/m 0 min 0 min 0,0 UV-I 0 W/m 7,7 km/h (2 Bft)
12.12.2013 01:50 4,4 C 3,9 C 98 % 1030,7 hPa 0,0 l/m 0 min 0 min 0,0 UV-I 0 W/m 20,6 km/h (4 Bft)
12.12.2013 01:52 4,4 C 3,9 C 98 % 1030,7 hPa 0,0 l/m 0 min 0 min 0,0 UV-I 0 W/m 10,3 km/h (2 Bft)
12.12.2013 01:54 4,4 C 3,9 C 98 % 1030,7 hPa 0,0 l/m 0 min 0 min 0,0 UV-I 0 W/m 18,0 km/h (3 Bft)
12.12.2013 01:56 4,4 C 3,3 C 98 % 1030,6 hPa 0,0 l/m 0 min 0 min 0,0 UV-I 0 W/m 10,3 km/h (2 Bft)
12.12.2013 01:58 4,4 C 3,3 C 98 % 1030,7 hPa 0,0 l/m 0 min 0 min 0,0 UV-I 0 W/m 7,7 km/h (2 Bft)
12.12.2013 02:00 4,3 C 3,3 C 98 % 1030,7 hPa 0,0 l/m 0 min 0 min 0,0 UV-I 0 W/m 12,9 km/h (3 Bft)
12.12.2013 02:02 4,3 C 3,3 C 98 % 1030,6 hPa 0,0 l/m 0 min 0 min 0,0 UV-I 0 W/m 20,6 km/h (4 Bft)
12.12.2013 02:04 4,3 C 3,3 C 98 % 1030,7 hPa 0,0 l/m 0 min 0 min 0,0 UV-I 0 W/m 20,6 km/h (4 Bft)
12.12.2013 02:06 4,3 C 3,3 C 98 % 1030,6 hPa 0,0 l/m 0 min 0 min 0,0 UV-I 0 W/m 10,3 km/h (2 Bft)
12.12.2013 02:08 4,3 C 3,3 C 98 % 1030,5 hPa 0,0 l/m 0 min 0 min 0,0 UV-I 0 W/m 15,4 km/h (3 Bft)
12.12.2013 02:10 4,3 C 3,3 C 98 % 1030,5 hPa 0,0 l/m 0 min 0 min 0,0 UV-I 0 W/m 10,3 km/h (2 Bft)
12.12.2013 02:12 4,3 C 3,3 C 98 % 1030,4 hPa 0,0 l/m 0 min 0 min 0,0 UV-I 0 W/m 18,0 km/h (3 Bft)
12.12.2013 02:14 4,3 C 3,3 C 98 % 1030,5 hPa 0,0 l/m 0 min 0 min 0,0 UV-I 0 W/m 15,4 km/h (3 Bft)
12.12.2013 02:16 4,3 C 3,3 C 98 % 1030,4 hPa 0,0 l/m 0 min 0 min 0,0 UV-I 0 W/m 15,4 km/h (3 Bft)
12.12.2013 02:18 4,3 C 3,3 C 98 % 1030,5 hPa 0,0 l/m 0 min 0 min 0,0 UV-I 0 W/m 15,4 km/h (3 Bft)
12.12.2013 02:20 4,3 C 3,3 C 98 % 1030,4 hPa 0,2 l/m 0 min 0 min 0,0 UV-I 0 W/m 12,9 km/h (3 Bft)
12.12.2013 02:22 4,3 C 3,3 C 98 % 1030,4 hPa 0,0 l/m 0 min 0 min 0,0 UV-I 0 W/m 18,0 km/h (3 Bft)
12.12.2013 02:24 4,3 C 3,3 C 98 % 1030,4 hPa 0,0 l/m 0 min 0 min 0,0 UV-I 0 W/m 7,7 km/h (2 Bft)
12.12.2013 02:26 4,3 C 3,3 C 98 % 1030,4 hPa 0,0 l/m 0 min 0 min 0,0 UV-I 0 W/m 2,6 km/h (1 Bft)
12.12.2013 02:28 4,3 C 3,3 C 98 % 1030,4 hPa 0,0 l/m 0 min 0 min 0,0 UV-I 0 W/m 7,7 km/h (2 Bft)
12.12.2013 02:30 4,3 C 3,3 C 98 % 1030,5 hPa 0,0 l/m 0 min 0 min 0,0 UV-I 0 W/m 15,4 km/h (3 Bft)
12.12.2013 02:32 4,3 C 3,3 C 98 % 1030,4 hPa 0,0 l/m 0 min 0 min 0,0 UV-I 0 W/m 10,3 km/h (2 Bft)
12.12.2013 02:34 4,3 C 3,3 C 98 % 1030,5 hPa 0,0 l/m 0 min 0 min 0,0 UV-I 0 W/m 12,9 km/h (3 Bft)
12.12.2013 02:36 4,3 C 3,3 C 98 % 1030,5 hPa 0,0 l/m 0 min 0 min 0,0 UV-I 0 W/m 15,4 km/h (3 Bft)
12.12.2013 02:38 4,3 C 3,3 C 98 % 1030,5 hPa 0,0 l/m 0 min 0 min 0,0 UV-I 0 W/m 18,0 km/h (3 Bft)
12.12.2013 02:40 4,3 C 3,3 C 98 % 1030,5 hPa 0,0 l/m 0 min 0 min 0,0 UV-I 0 W/m 15,4 km/h (3 Bft)
12.12.2013 02:42 4,2 C 3,3 C 98 % 1030,5 hPa 0,0 l/m 0 min 0 min 0,0 UV-I 0 W/m 15,4 km/h (3 Bft)
12.12.2013 02:44 4,2 C 3,3 C 98 % 1030,6 hPa 0,0 l/m 0 min 0 min 0,0 UV-I 0 W/m 12,9 km/h (3 Bft)
12.12.2013 02:46 4,2 C 3,3 C 98 % 1030,6 hPa 0,0 l/m 0 min 0 min 0,0 UV-I 0 W/m 18,0 km/h (3 Bft)
12.12.2013 02:48 4,2 C 3,3 C 98 % 1030,6 hPa 0,0 l/m 0 min 0 min 0,0 UV-I 0 W/m 15,4 km/h (3 Bft)
12.12.2013 02:50 4,2 C 3,3 C 98 % 1030,5 hPa 0,0 l/m 0 min 0 min 0,0 UV-I 0 W/m 15,4 km/h (3 Bft)
12.12.2013 02:52 4,2 C 3,3 C 98 % 1030,6 hPa 0,0 l/m 0 min 0 min 0,0 UV-I 0 W/m 23,2 km/h (4 Bft)
12.12.2013 02:54 4,2 C 3,3 C 98 % 1030,6 hPa 0,0 l/m 0 min 0 min 0,0 UV-I 0 W/m 10,3 km/h (2 Bft)
12.12.2013 02:56 4,2 C 3,3 C 98 % 1030,6 hPa 0,0 l/m 0 min 0 min 0,0 UV-I 0 W/m 7,7 km/h (2 Bft)
12.12.2013 02:58 4,2 C 3,3 C 98 % 1030,5 hPa 0,0 l/m 0 min 0 min 0,0 UV-I 0 W/m 10,3 km/h (2 Bft)
12.12.2013 03:00 4,2 C 3,3 C 98 % 1030,5 hPa 0,0 l/m 0 min 0 min 0,0 UV-I 0 W/m 12,9 km/h (3 Bft)
12.12.2013 03:02 4,1 C 3,3 C 98 % 1030,5 hPa 0,0 l/m 0 min 0 min 0,0 UV-I 0 W/m 20,6 km/h (4 Bft)
12.12.2013 03:04 4,1 C 3,3 C 98 % 1030,5 hPa 0,0 l/m 0 min 0 min 0,0 UV-I 0 W/m 15,4 km/h (3 Bft)
12.12.2013 03:06 4,1 C 3,3 C 98 % 1030,4 hPa 0,0 l/m 0 min 0 min 0,0 UV-I 0 W/m 10,3 km/h (2 Bft)
12.12.2013 03:08 4,1 C 3,3 C 98 % 1030,4 hPa 0,0 l/m 0 min 0 min 0,0 UV-I 0 W/m 18,0 km/h (3 Bft)
12.12.2013 03:10 4,1 C 3,3 C 98 % 1030,4 hPa 0,0 l/m 0 min 0 min 0,0 UV-I 0 W/m 20,6 km/h (4 Bft)
12.12.2013 03:12 4,1 C 3,3 C 98 % 1030,4 hPa 0,0 l/m 0 min 0 min 0,0 UV-I 0 W/m 15,4 km/h (3 Bft)
12.12.2013 03:14 4,1 C 3,3 C 98 % 1030,4 hPa 0,0 l/m 0 min 0 min 0,0 UV-I 0 W/m 7,7 km/h (2 Bft)
12.12.2013 03:16 4,1 C 3,3 C 98 % 1030,3 hPa 0,0 l/m 0 min 0 min 0,0 UV-I 0 W/m 7,7 km/h (2 Bft)
12.12.2013 03:18 4,1 C 3,3 C 98 % 1030,3 hPa 0,0 l/m 0 min 0 min 0,0 UV-I 0 W/m 7,7 km/h (2 Bft)
12.12.2013 03:20 4,1 C 3,3 C 98 % 1030,3 hPa 0,0 l/m 0 min 0 min 0,0 UV-I 0 W/m 12,9 km/h (3 Bft)
12.12.2013 03:22 4,1 C 3,3 C 98 % 1030,3 hPa 0,0 l/m 0 min 0 min 0,0 UV-I 0 W/m 0,0 km/h (0 Bft)
12.12.2013 03:24 4,1 C 3,3 C 98 % 1030,3 hPa 0,0 l/m 0 min 0 min 0,0 UV-I 0 W/m 7,7 km/h (2 Bft)
12.12.2013 03:26 4,1 C 3,3 C 98 % 1030,3 hPa 0,0 l/m 0 min 0 min 0,0 UV-I 0 W/m 15,4 km/h (3 Bft)
12.12.2013 03:28 4,1 C 3,3 C 98 % 1030,3 hPa 0,0 l/m 0 min 0 min 0,0 UV-I 0 W/m 10,3 km/h (2 Bft)
12.12.2013 03:30 4,1 C 3,3 C 98 % 1030,3 hPa 0,0 l/m 0 min 0 min 0,0 UV-I 0 W/m 10,3 km/h (2 Bft)
12.12.2013 03:32 4,1 C 3,3 C 98 % 1030,3 hPa 0,0 l/m 0 min 0 min 0,0 UV-I 0 W/m 15,4 km/h (3 Bft)
12.12.2013 03:34 4,1 C 3,3 C 98 % 1030,3 hPa 0,0 l/m 0 min 0 min 0,0 UV-I 0 W/m 15,4 km/h (3 Bft)
12.12.2013 03:36 4,1 C 3,3 C 98 % 1030,3 hPa 0,0 l/m 0 min 0 min 0,0 UV-I 0 W/m 12,9 km/h (3 Bft)
12.12.2013 03:38 4,1 C 3,3 C 98 % 1030,3 hPa 0,0 l/m 0 min 0 min 0,0 UV-I 0 W/m 15,4 km/h (3 Bft)
12.12.2013 03:40 4,1 C 3,3 C 98 % 1030,3 hPa 0,0 l/m 0 min 0 min 0,0 UV-I 0 W/m 7,7 km/h (2 Bft)
12.12.2013 03:42 4,1 C 3,3 C 98 % 1030,4 hPa 0,0 l/m 0 min 0 min 0,0 UV-I 0 W/m 23,2 km/h (4 Bft)
12.12.2013 03:44 4,0 C 3,3 C 98 % 1030,3 hPa 0,0 l/m 0 min 0 min 0,0 UV-I 0 W/m 15,4 km/h (3 Bft)
12.12.2013 03:46 4,0 C 3,3 C 98 % 1030,3 hPa 0,0 l/m 0 min 0 min 0,0 UV-I 0 W/m 10,3 km/h (2 Bft)
12.12.2013 03:48 4,0 C 3,3 C 98 % 1030,3 hPa 0,0 l/m 0 min 0 min 0,0 UV-I 0 W/m 10,3 km/h (2 Bft)
12.12.2013 03:50 4,0 C 3,3 C 98 % 1030,3 hPa 0,0 l/m 0 min 0 min 0,0 UV-I 0 W/m 15,4 km/h (3 Bft)
12.12.2013 03:52 4,0 C 3,3 C 98 % 1030,3 hPa 0,0 l/m 0 min 0 min 0,0 UV-I 0 W/m 15,4 km/h (3 Bft)
12.12.2013 03:54 3,9 C 3,3 C 98 % 1030,2 hPa 0,0 l/m 0 min 0 min 0,0 UV-I 0 W/m 23,2 km/h (4 Bft)
12.12.2013 03:56 3,9 C 3,3 C 98 % 1030,3 hPa 0,0 l/m 0 min 0 min 0,0 UV-I 0 W/m 10,3 km/h (2 Bft)
12.12.2013 03:58 3,9 C 3,3 C 98 % 1030,2 hPa 0,0 l/m 0 min 0 min 0,0 UV-I 0 W/m 15,4 km/h (3 Bft)
12.12.2013 04:00 3,9 C 3,3 C 98 % 1030,3 hPa 0,0 l/m 0 min 0 min 0,0 UV-I 0 W/m 15,4 km/h (3 Bft)
12.12.2013 04:05 3,9 C 3,3 C 98 % 1030,2 hPa 0,0 l/m 0 min 0 min 0,0 UV-I 0 W/m 12,9 km/h (3 Bft)
12.12.2013 04:10 3,9 C 3,3 C 98 % 1030,2 hPa 0,0 l/m 0 min 0 min 0,0 UV-I 0 W/m 18,0 km/h (3 Bft)
12.12.2013 04:15 3,9 C 3,3 C 98 % 1030,2 hPa 0,0 l/m 0 min 0 min 0,0 UV-I 0 W/m 18,0 km/h (3 Bft)
12.12.2013 04:20 3,8 C 3,3 C 98 % 1030,2 hPa 0,0 l/m 0 min 0 min 0,0 UV-I 0 W/m 12,9 km/h (3 Bft)
12.12.2013 04:25 3,8 C 3,3 C 98 % 1030,1 hPa 0,0 l/m 0 min 0 min 0,0 UV-I 0 W/m 12,9 km/h (3 Bft)
12.12.2013 04:30 3,8 C 3,3 C 98 % 1030,1 hPa 0,0 l/m 0 min 0 min 0,0 UV-I 0 W/m 18,0 km/h (3 Bft)
12.12.2013 04:35 3,8 C 3,3 C 98 % 1030,1 hPa 0,0 l/m 0 min 0 min 0,0 UV-I 0 W/m 12,9 km/h (3 Bft)
12.12.2013 04:40 3,8 C 3,3 C 98 % 1030,0 hPa 0,0 l/m 0 min 0 min 0,0 UV-I 0 W/m 18,0 km/h (3 Bft)
12.12.2013 04:45 3,8 C 3,3 C 98 % 1030,1 hPa 0,0 l/m 0 min 0 min 0,0 UV-I 0 W/m 12,9 km/h (3 Bft)
12.12.2013 04:50 3,8 C 3,3 C 98 % 1030,1 hPa 0,0 l/m 0 min 0 min 0,0 UV-I 0 W/m 12,9 km/h (3 Bft)
12.12.2013 04:55 3,8 C 3,3 C 98 % 1030,1 hPa 0,0 l/m 0 min 0 min 0,0 UV-I 0 W/m 15,4 km/h (3 Bft)
12.12.2013 05:00 3,8 C 2,8 C 98 % 1030,0 hPa 0,0 l/m 0 min 0 min 0,0 UV-I 0 W/m 15,4 km/h (3 Bft)
12.12.2013 05:05 3,8 C 2,8 C 98 % 1030,1 hPa 0,0 l/m 0 min 0 min 0,0 UV-I 0 W/m 10,3 km/h (2 Bft)
12.12.2013 05:10 3,7 C 3,3 C 98 % 1030,1 hPa 0,0 l/m 0 min 0 min 0,0 UV-I 0 W/m 10,3 km/h (2 Bft)
12.12.2013 05:15 3,7 C 2,8 C 98 % 1030,0 hPa 0,0 l/m 0 min 0 min 0,0 UV-I 0 W/m 10,3 km/h (2 Bft)
12.12.2013 05:20 3,7 C 2,8 C 98 % 1030,1 hPa 0,0 l/m 0 min 0 min 0,0 UV-I 0 W/m 15,4 km/h (3 Bft)
12.12.2013 05:25 3,7 C 2,8 C 98 % 1030,1 hPa 0,0 l/m 0 min 0 min 0,0 UV-I 0 W/m 15,4 km/h (3 Bft)
12.12.2013 05:30 3,7 C 2,8 C 98 % 1030,0 hPa 0,0 l/m 0 min 0 min 0,0 UV-I 0 W/m 20,6 km/h (4 Bft)
12.12.2013 05:35 3,7 C 2,8 C 98 % 1030,0 hPa 0,0 l/m 0 min 0 min 0,0 UV-I 0 W/m 12,9 km/h (3 Bft)
12.12.2013 05:40 3,7 C 2,8 C 98 % 1030,0 hPa 0,0 l/m 0 min 0 min 0,0 UV-I 0 W/m 15,4 km/h (3 Bft)
12.12.2013 05:45 3,7 C 2,8 C 98 % 1029,9 hPa 0,0 l/m 0 min 0 min 0,0 UV-I 0 W/m 15,4 km/h (3 Bft)
12.12.2013 05:50 3,7 C 2,8 C 98 % 1029,9 hPa 0,0 l/m 0 min 0 min 0,0 UV-I 0 W/m 18,0 km/h (3 Bft)
12.12.2013 05:55 3,7 C 2,8 C 98 % 1029,8 hPa 0,0 l/m 0 min 0 min 0,0 UV-I 0 W/m 15,4 km/h (3 Bft)
12.12.2013 06:00 3,7 C 2,8 C 98 % 1029,8 hPa 0,0 l/m 0 min 0 min 0,0 UV-I 0 W/m 15,4 km/h (3 Bft)
12.12.2013 06:05 3,7 C 2,8 C 98 % 1029,8 hPa 0,0 l/m 0 min 0 min 0,0 UV-I 0 W/m 12,9 km/h (3 Bft)
12.12.2013 06:10 3,7 C 2,8 C 98 % 1029,8 hPa 0,0 l/m 0 min 0 min 0,0 UV-I 0 W/m 12,9 km/h (3 Bft)
12.12.2013 06:15 3,7 C 2,8 C 98 % 1029,7 hPa 0,0 l/m 0 min 0 min 0,0 UV-I 0 W/m 20,6 km/h (4 Bft)
12.12.2013 06:20 3,7 C 2,8 C 98 % 1029,7 hPa 0,0 l/m 0 min 0 min 0,0 UV-I 0 W/m 20,6 km/h (4 Bft)
12.12.2013 06:25 3,7 C 2,8 C 98 % 1029,6 hPa 0,0 l/m 0 min 0 min 0,0 UV-I 0 W/m 20,6 km/h (4 Bft)
12.12.2013 06:30 3,7 C 2,8 C 98 % 1029,6 hPa 0,0 l/m 0 min 0 min 0,0 UV-I 0 W/m 20,6 km/h (4 Bft)
12.12.2013 06:35 3,7 C 2,8 C 98 % 1029,6 hPa 0,0 l/m 0 min 0 min 0,0 UV-I 0 W/m 20,6 km/h (4 Bft)
12.12.2013 06:40 3,7 C 2,8 C 98 % 1029,6 hPa 0,0 l/m 0 min 0 min 0,0 UV-I 0 W/m 15,4 km/h (3 Bft)
12.12.2013 06:45 3,7 C 2,8 C 98 % 1029,6 hPa 0,0 l/m 0 min 0 min 0,0 UV-I 0 W/m 23,2 km/h (4 Bft)
12.12.2013 06:50 3,7 C 2,8 C 98 % 1029,6 hPa 0,0 l/m 0 min 0 min 0,0 UV-I 0 W/m 20,6 km/h (4 Bft)
12.12.2013 06:55 3,6 C 2,8 C 98 % 1029,5 hPa 0,0 l/m 0 min 0 min 0,0 UV-I 0 W/m 20,6 km/h (4 Bft)
12.12.2013 07:00 3,6 C 2,8 C 98 % 1029,6 hPa 0,0 l/m 0 min 0 min 0,0 UV-I 0 W/m 23,2 km/h (4 Bft)
12.12.2013 07:05 3,6 C 2,8 C 98 % 1029,6 hPa 0,0 l/m 0 min 0 min 0,0 UV-I 0 W/m 23,2 km/h (4 Bft)
12.12.2013 07:12 3,6 C 2,8 C 98 % 1029,6 hPa 0,0 l/m 0 min 0 min 0,0 UV-I 0 W/m 12,9 km/h (3 Bft)
12.12.2013 07:14 3,5 C 2,8 C 98 % 1029,7 hPa 0,0 l/m 0 min 0 min 0,0 UV-I 0 W/m 15,4 km/h (3 Bft)
12.12.2013 07:16 3,5 C 2,8 C 98 % 1029,7 hPa 0,0 l/m 0 min 0 min 0,0 UV-I 0 W/m 12,9 km/h (3 Bft)
12.12.2013 07:18 3,5 C 2,8 C 98 % 1029,7 hPa 0,0 l/m 0 min 0 min 0,0 UV-I 0 W/m 18,0 km/h (3 Bft)
12.12.2013 07:20 3,5 C 2,8 C 98 % 1029,7 hPa 0,0 l/m 0 min 0 min 0,0 UV-I 0 W/m 23,2 km/h (4 Bft)
12.12.2013 07:22 3,5 C 2,8 C 98 % 1029,7 hPa 0,0 l/m 0 min 0 min 0,0 UV-I 0 W/m 23,2 km/h (4 Bft)
12.12.2013 07:24 3,5 C 2,8 C 98 % 1029,7 hPa 0,0 l/m 0 min 0 min 0,0 UV-I 0 W/m 18,0 km/h (3 Bft)
12.12.2013 07:26 3,5 C 2,8 C 98 % 1029,6 hPa 0,0 l/m 0 min 0 min 0,0 UV-I 0 W/m 12,9 km/h (3 Bft)
12.12.2013 07:28 3,5 C 2,8 C 98 % 1029,6 hPa 0,0 l/m 0 min 0 min 0,0 UV-I 0 W/m 12,9 km/h (3 Bft)
12.12.2013 07:30 3,5 C 2,8 C 98 % 1029,6 hPa 0,0 l/m 0 min 0 min 0,0 UV-I 0 W/m 10,3 km/h (2 Bft)
12.12.2013 07:32 3,5 C 2,8 C 98 % 1029,6 hPa 0,0 l/m 0 min 0 min 0,0 UV-I 0 W/m 15,4 km/h (3 Bft)
12.12.2013 07:34 3,5 C 2,8 C 98 % 1029,7 hPa 0,0 l/m 0 min 0 min 0,0 UV-I 0 W/m 15,4 km/h (3 Bft)
12.12.2013 07:36 3,5 C 2,8 C 98 % 1029,7 hPa 0,0 l/m 0 min 0 min 0,0 UV-I 0 W/m 20,6 km/h (4 Bft)
12.12.2013 07:38 3,5 C 2,8 C 98 % 1029,7 hPa 0,0 l/m 0 min 0 min 0,0 UV-I 0 W/m 15,4 km/h (3 Bft)
12.12.2013 07:40 3,4 C 2,8 C 98 % 1029,7 hPa 0,0 l/m 0 min 0 min 0,0 UV-I 0 W/m 18,0 km/h (3 Bft)
12.12.2013 07:42 3,5 C 2,8 C 98 % 1029,7 hPa 0,0 l/m 0 min 0 min 0,0 UV-I 0 W/m 15,4 km/h (3 Bft)
12.12.2013 07:44 3,4 C 2,8 C 98 % 1029,7 hPa 0,0 l/m 0 min 0 min 0,0 UV-I 0 W/m 10,3 km/h (2 Bft)
12.12.2013 07:46 3,4 C 2,8 C 98 % 1029,7 hPa 0,0 l/m 0 min 0 min 0,0 UV-I 0 W/m 12,9 km/h (3 Bft)
12.12.2013 07:48 3,4 C 2,8 C 97 % 1029,7 hPa 0,0 l/m 0 min 0 min 0,0 UV-I 0 W/m 18,0 km/h (3 Bft)
12.12.2013 07:50 3,4 C 2,8 C 98 % 1029,7 hPa 0,0 l/m 0 min 0 min 0,0 UV-I 0 W/m 20,6 km/h (4 Bft)
12.12.2013 07:52 3,4 C 2,8 C 98 % 1029,6 hPa 0,0 l/m 0 min 0 min 0,0 UV-I 0 W/m 12,9 km/h (3 Bft)
12.12.2013 07:54 3,4 C 2,8 C 97 % 1029,7 hPa 0,0 l/m 0 min 0 min 0,0 UV-I 0 W/m 15,4 km/h (3 Bft)
12.12.2013 07:56 3,4 C 2,8 C 97 % 1029,6 hPa 0,0 l/m 0 min 0 min 0,0 UV-I 0 W/m 10,3 km/h (2 Bft)
12.12.2013 07:58 3,4 C 2,8 C 97 % 1029,6 hPa 0,0 l/m 0 min 0 min 0,0 UV-I 0 W/m 7,7 km/h (2 Bft)
12.12.2013 08:00 3,4 C 2,8 C 97 % 1029,6 hPa 0,0 l/m 0 min 0 min 0,0 UV-I 0 W/m 15,4 km/h (3 Bft)
12.12.2013 08:02 3,4 C 2,8 C 97 % 1029,6 hPa 0,0 l/m 0 min 0 min 0,0 UV-I 0 W/m 25,7 km/h (4 Bft)
12.12.2013 08:04 3,4 C 2,8 C 97 % 1029,6 hPa 0,0 l/m 0 min 0 min 0,0 UV-I 0 W/m 23,2 km/h (4 Bft)
12.12.2013 08:06 3,4 C 2,8 C 97 % 1029,6 hPa 0,0 l/m 0 min 0 min 0,0 UV-I 0 W/m 15,4 km/h (3 Bft)
12.12.2013 08:08 3,4 C 2,8 C 97 % 1029,6 hPa 0,0 l/m 0 min 0 min 0,0 UV-I 0 W/m 10,3 km/h (2 Bft)
12.12.2013 08:10 3,4 C 2,8 C 97 % 1029,6 hPa 0,0 l/m 0 min 0 min 0,0 UV-I 0 W/m 10,3 km/h (2 Bft)
12.12.2013 08:12 3,4 C 2,8 C 98 % 1029,6 hPa 0,0 l/m 0 min 0 min 0,0 UV-I 0 W/m 7,7 km/h (2 Bft)
12.12.2013 08:14 3,4 C 2,8 C 97 % 1029,6 hPa 0,0 l/m 0 min 0 min 0,0 UV-I 0 W/m 10,3 km/h (2 Bft)
12.12.2013 08:16 3,4 C 2,8 C 97 % 1029,6 hPa 0,0 l/m 0 min 0 min 0,0 UV-I 0 W/m 10,3 km/h (2 Bft)
12.12.2013 08:18 3,4 C 2,8 C 97 % 1029,6 hPa 0,0 l/m 0 min 0 min 0,0 UV-I 0 W/m 10,3 km/h (2 Bft)
12.12.2013 08:20 3,4 C 2,8 C 97 % 1029,6 hPa 0,0 l/m 0 min 0 min 0,0 UV-I 0 W/m 15,4 km/h (3 Bft)
12.12.2013 08:22 3,4 C 2,8 C 97 % 1029,6 hPa 0,0 l/m 0 min 0 min 0,0 UV-I 0 W/m 10,3 km/h (2 Bft)
12.12.2013 08:24 3,4 C 2,8 C 97 % 1029,6 hPa 0,0 l/m 0 min 0 min 0,0 UV-I 0 W/m 15,4 km/h (3 Bft)
12.12.2013 08:26 3,4 C 2,8 C 97 % 1029,5 hPa 0,0 l/m 0 min 0 min 0,0 UV-I 0 W/m 15,4 km/h (3 Bft)
12.12.2013 08:28 3,4 C 2,8 C 97 % 1029,6 hPa 0,0 l/m 0 min 0 min 0,0 UV-I 0 W/m 12,9 km/h (3 Bft)
12.12.2013 08:30 3,5 C 2,8 C 97 % 1029,6 hPa 0,0 l/m 0 min 0 min 0,0 UV-I 0 W/m 7,7 km/h (2 Bft)
12.12.2013 08:32 3,4 C 2,8 C 97 % 1029,6 hPa 0,0 l/m 0 min 0 min 0,0 UV-I 0 W/m 20,6 km/h (4 Bft)
12.12.2013 08:34 3,4 C 2,8 C 97 % 1029,5 hPa 0,0 l/m 0 min 0 min 0,0 UV-I 0 W/m 12,9 km/h (3 Bft)
12.12.2013 08:36 3,4 C 2,8 C 97 % 1029,5 hPa 0,0 l/m 0 min 0 min 0,0 UV-I 5 W/m 10,3 km/h (2 Bft)
12.12.2013 08:38 3,4 C 2,8 C 97 % 1029,5 hPa 0,0 l/m 0 min 0 min 0,0 UV-I 5 W/m 7,7 km/h (2 Bft)
12.12.2013 08:40 3,4 C 2,8 C 97 % 1029,5 hPa 0,0 l/m 0 min 0 min 0,0 UV-I 5 W/m 20,6 km/h (4 Bft)
12.12.2013 08:42 3,4 C 2,8 C 97 % 1029,5 hPa 0,0 l/m 0 min 0 min 0,0 UV-I 5 W/m 12,9 km/h (3 Bft)
12.12.2013 08:44 3,4 C 2,8 C 97 % 1029,5 hPa 0,0 l/m 0 min 0 min 0,0 UV-I 5 W/m 12,9 km/h (3 Bft)
12.12.2013 08:46 3,4 C 2,8 C 97 % 1029,5 hPa 0,0 l/m 0 min 0 min 0,0 UV-I 7 W/m 18,0 km/h (3 Bft)
12.12.2013 08:48 3,4 C 2,8 C 97 % 1029,6 hPa 0,0 l/m 0 min 0 min 0,0 UV-I 7 W/m 20,6 km/h (4 Bft)
12.12.2013 08:50 3,4 C 2,8 C 97 % 1029,5 hPa 0,0 l/m 0 min 0 min 0,0 UV-I 9 W/m 23,2 km/h (4 Bft)
12.12.2013 08:52 3,4 C 2,8 C 97 % 1029,5 hPa 0,0 l/m 0 min 0 min 0,0 UV-I 9 W/m 15,4 km/h (3 Bft)
12.12.2013 08:54 3,4 C 2,8 C 98 % 1029,5 hPa 0,0 l/m 0 min 0 min 0,0 UV-I 9 W/m 15,4 km/h (3 Bft)
12.12.2013 08:56 3,4 C 2,8 C 98 % 1029,5 hPa 0,0 l/m 0 min 0 min 0,0 UV-I 11 W/m 20,6 km/h (4 Bft)
12.12.2013 08:58 3,4 C 2,8 C 98 % 1029,6 hPa 0,0 l/m 0 min 0 min 0,0 UV-I 11 W/m 20,6 km/h (4 Bft)
12.12.2013 09:00 3,4 C 2,8 C 98 % 1029,6 hPa 0,0 l/m 0 min 0 min 0,0 UV-I 12 W/m 15,4 km/h (3 Bft)
12.12.2013 09:02 3,4 C 2,8 C 98 % 1029,6 hPa 0,0 l/m 0 min 0 min 0,0 UV-I 12 W/m 18,0 km/h (3 Bft)
12.12.2013 09:04 3,4 C 2,8 C 98 % 1029,6 hPa 0,0 l/m 0 min 0 min 0,0 UV-I 12 W/m 12,9 km/h (3 Bft)
12.12.2013 09:06 3,4 C 2,8 C 98 % 1029,6 hPa 0,0 l/m 0 min 0 min 0,0 UV-I 14 W/m 12,9 km/h (3 Bft)
12.12.2013 09:08 3,4 C 2,8 C 98 % 1029,7 hPa 0,0 l/m 0 min 0 min 0,0 UV-I 14 W/m 7,7 km/h (2 Bft)
12.12.2013 09:10 3,4 C 2,8 C 97 % 1029,7 hPa 0,0 l/m 0 min 0 min 0,0 UV-I 18 W/m 0,0 km/h (0 Bft)
12.12.2013 09:12 3,4 C 2,8 C 97 % 1029,6 hPa 0,0 l/m 0 min 0 min 0,0 UV-I 14 W/m 7,7 km/h (2 Bft)
12.12.2013 09:14 3,4 C 2,8 C 97 % 1029,6 hPa 0,0 l/m 0 min 0 min 0,0 UV-I 18 W/m 7,7 km/h (2 Bft)
12.12.2013 09:16 3,4 C 2,8 C 97 % 1029,6 hPa 0,0 l/m 0 min 0 min 0,0 UV-I 18 W/m 5,1 km/h (1 Bft)
12.12.2013 09:18 3,4 C 2,8 C 97 % 1029,6 hPa 0,0 l/m 0 min 0 min 0,0 UV-I 18 W/m 15,4 km/h (3 Bft)
12.12.2013 09:20 3,4 C 2,8 C 97 % 1029,5 hPa 0,0 l/m 0 min 0 min 0,0 UV-I 21 W/m 15,4 km/h (3 Bft)
12.12.2013 09:22 3,5 C 2,8 C 97 % 1029,6 hPa 0,0 l/m 0 min 0 min 0,0 UV-I 23 W/m 15,4 km/h (3 Bft)
12.12.2013 09:24 3,5 C 2,8 C 97 % 1029,6 hPa 0,0 l/m 0 min 0 min 0,0 UV-I 25 W/m 18,0 km/h (3 Bft)
12.12.2013 09:26 3,5 C 2,8 C 97 % 1029,5 hPa 0,0 l/m 0 min 0 min 0,0 UV-I 23 W/m 23,2 km/h (4 Bft)
12.12.2013 09:28 3,5 C 2,8 C 97 % 1029,6 hPa 0,0 l/m 0 min 0 min 0,0 UV-I 23 W/m 23,2 km/h (4 Bft)
12.12.2013 09:30 3,4 C 2,8 C 97 % 1029,6 hPa 0,0 l/m 0 min 0 min 0,0 UV-I 30 W/m 20,6 km/h (4 Bft)
12.12.2013 09:32 3,4 C 2,8 C 97 % 1029,5 hPa 0,0 l/m 0 min 0 min 0,0 UV-I 25 W/m 25,7 km/h (4 Bft)
12.12.2013 09:34 3,4 C 2,8 C 97 % 1029,5 hPa 0,0 l/m 0 min 0 min 0,0 UV-I 26 W/m 23,2 km/h (4 Bft)
12.12.2013 09:36 3,4 C 2,8 C 97 % 1029,6 hPa 0,0 l/m 0 min 0 min 0,0 UV-I 30 W/m 18,0 km/h (3 Bft)
12.12.2013 09:38 3,4 C 2,8 C 97 % 1029,6 hPa 0,0 l/m 0 min 0 min 0,0 UV-I 32 W/m 12,9 km/h (3 Bft)
12.12.2013 09:40 3,4 C 2,8 C 97 % 1029,6 hPa 0,0 l/m 0 min 0 min 0,0 UV-I 30 W/m 23,2 km/h (4 Bft)
12.12.2013 09:42 3,4 C 2,8 C 97 % 1029,5 hPa 0,0 l/m 0 min 0 min 0,0 UV-I 32 W/m 23,2 km/h (4 Bft)
12.12.2013 09:44 3,4 C 2,8 C 97 % 1029,5 hPa 0,0 l/m 0 min 0 min 0,0 UV-I 35 W/m 18,0 km/h (3 Bft)
12.12.2013 09:46 3,4 C 2,8 C 97 % 1029,5 hPa 0,0 l/m 0 min 0 min 0,0 UV-I 37 W/m 20,6 km/h (4 Bft)
12.12.2013 09:48 3,4 C 2,8 C 97 % 1029,5 hPa 0,0 l/m 0 min 0 min 0,0 UV-I 39 W/m 25,7 km/h (4 Bft)
12.12.2013 09:50 3,4 C 2,8 C 97 % 1029,5 hPa 0,0 l/m 0 min 0 min 0,0 UV-I 40 W/m 25,7 km/h (4 Bft)
12.12.2013 09:52 3,4 C 2,8 C 97 % 1029,5 hPa 0,0 l/m 0 min 0 min 0,0 UV-I 44 W/m 20,6 km/h (4 Bft)
12.12.2013 09:54 3,4 C 2,8 C 97 % 1029,6 hPa 0,0 l/m 0 min 0 min 0,0 UV-I 51 W/m 25,7 km/h (4 Bft)
12.12.2013 09:56 3,4 C 2,8 C 97 % 1029,5 hPa 0,0 l/m 0 min 0 min 0,0 UV-I 54 W/m 30,9 km/h (5 Bft)
12.12.2013 09:58 3,4 C 2,8 C 97 % 1029,5 hPa 0,0 l/m 0 min 0 min 0,0 UV-I 51 W/m 20,6 km/h (4 Bft)
12.12.2013 10:00 3,4 C 2,8 C 97 % 1029,6 hPa 0,0 l/m 0 min 0 min 0,0 UV-I 51 W/m 15,4 km/h (3 Bft)
12.12.2013 10:02 3,4 C 2,8 C 97 % 1029,7 hPa 0,0 l/m 0 min 0 min 0,0 UV-I 46 W/m 23,2 km/h (4 Bft)
12.12.2013 10:06 3,4 C 2,8 C 97 % 1029,7 hPa 0,0 l/m 0 min 0 min 0,0 UV-I 54 W/m 25,7 km/h (4 Bft)
12.12.2013 10:08 3,4 C 2,8 C 97 % 1029,6 hPa 0,0 l/m 0 min 0 min 0,0 UV-I 63 W/m 28,3 km/h (4 Bft)
12.12.2013 10:10 3,4 C 2,8 C 97 % 1029,6 hPa 0,0 l/m 0 min 0 min 0,0 UV-I 69 W/m 23,2 km/h (4 Bft)
12.12.2013 10:12 3,4 C 2,8 C 97 % 1029,4 hPa 0,0 l/m 0 min 0 min 0,0 UV-I 79 W/m 15,4 km/h (3 Bft)
12.12.2013 10:14 3,4 C 2,8 C 97 % 1029,5 hPa 0,0 l/m 0 min 0 min 0,0 UV-I 77 W/m 12,9 km/h (3 Bft)
12.12.2013 10:16 3,4 C 2,8 C 97 % 1029,5 hPa 0,0 l/m 0 min 0 min 0,0 UV-I 74 W/m 15,4 km/h (3 Bft)
12.12.2013 10:18 3,5 C 2,8 C 97 % 1029,6 hPa 0,0 l/m 0 min 0 min 0,0 UV-I 67 W/m 23,2 km/h (4 Bft)
12.12.2013 10:20 3,5 C 2,8 C 97 % 1029,6 hPa 0,0 l/m 0 min 0 min 0,0 UV-I 88 W/m 20,6 km/h (4 Bft)
12.12.2013 10:22 3,5 C 2,8 C 97 % 1029,6 hPa 0,0 l/m 0 min 0 min 0,0 UV-I 97 W/m 15,4 km/h (3 Bft)
12.12.2013 10:24 3,6 C 3,3 C 97 % 1029,6 hPa 0,0 l/m 0 min 0 min 0,0 UV-I 93 W/m 15,4 km/h (3 Bft)
12.12.2013 10:26 3,6 C 2,8 C 97 % 1029,5 hPa 0,0 l/m 0 min 0 min 0,0 UV-I 77 W/m 18,0 km/h (3 Bft)
12.12.2013 10:28 3,6 C 2,8 C 97 % 1029,4 hPa 0,0 l/m 0 min 0 min 0,0 UV-I 67 W/m 28,3 km/h (4 Bft)
12.12.2013 10:30 3,5 C 2,8 C 96 % 1029,5 hPa 0,0 l/m 2 min 0 min 0,0 UV-I 167 W/m 30,9 km/h (5 Bft)
12.12.2013 10:32 3,6 C 2,8 C 96 % 1029,5 hPa 0,0 l/m 2 min 0 min 0,0 UV-I 139 W/m 36,0 km/h (5 Bft)
12.12.2013 10:34 3,6 C 2,8 C 96 % 1029,5 hPa 0,0 l/m 2 min 0 min 0,0 UV-I 151 W/m 28,3 km/h (4 Bft)
12.12.2013 10:36 3,6 C 2,8 C 96 % 1029,5 hPa 0,0 l/m 0 min 0 min 0,0 UV-I 76 W/m 28,3 km/h (4 Bft)
12.12.2013 10:38 3,6 C 2,8 C 96 % 1029,5 hPa 0,0 l/m 0 min 0 min 0,0 UV-I 83 W/m 25,7 km/h (4 Bft)
12.12.2013 10:40 3,6 C 2,8 C 96 % 1029,4 hPa 0,0 l/m 0 min 0 min 0,0 UV-I 83 W/m 33,5 km/h (5 Bft)
12.12.2013 10:42 3,6 C 2,8 C 96 % 1029,5 hPa 0,0 l/m 0 min 0 min 0,0 UV-I 109 W/m 25,7 km/h (4 Bft)
12.12.2013 10:44 3,6 C 2,8 C 96 % 1029,4 hPa 0,0 l/m 0 min 0 min 0,0 UV-I 97 W/m 23,2 km/h (4 Bft)
12.12.2013 10:46 3,6 C 2,8 C 95 % 1029,4 hPa 0,0 l/m 0 min 0 min 0,0 UV-I 116 W/m 30,9 km/h (5 Bft)
12.12.2013 10:48 3,7 C 2,8 C 95 % 1029,4 hPa 0,0 l/m 0 min 0 min 0,0 UV-I 97 W/m 15,4 km/h (3 Bft)
12.12.2013 10:50 3,7 C 3,3 C 95 % 1029,4 hPa 0,0 l/m 0 min 0 min 0,0 UV-I 100 W/m 23,2 km/h (4 Bft)
12.12.2013 10:52 3,7 C 3,3 C 95 % 1029,3 hPa 0,0 l/m 0 min 0 min 0,0 UV-I 116 W/m 12,9 km/h (3 Bft)
12.12.2013 10:54 3,8 C 3,3 C 95 % 1029,3 hPa 0,0 l/m 0 min 0 min 0,0 UV-I 114 W/m 18,0 km/h (3 Bft)
12.12.2013 10:56 3,8 C 3,3 C 95 % 1029,2 hPa 0,0 l/m 0 min 0 min 0,0 UV-I 113 W/m 23,2 km/h (4 Bft)
12.12.2013 10:58 3,9 C 3,3 C 95 % 1029,2 hPa 0,0 l/m 2 min 0 min 0,0 UV-I 214 W/m 20,6 km/h (4 Bft)
12.12.2013 11:00 3,9 C 3,3 C 95 % 1029,2 hPa 0,0 l/m 2 min 0 min 0,0 UV-I 204 W/m 15,4 km/h (3 Bft)
12.12.2013 11:02 4,1 C 3,3 C 95 % 1029,0 hPa 0,0 l/m 2 min 0 min 0,0 UV-I 220 W/m 12,9 km/h (3 Bft)
12.12.2013 11:04 4,2 C 3,3 C 95 % 1029,1 hPa 0,0 l/m 2 min 0 min 0,0 UV-I 206 W/m 18,0 km/h (3 Bft)
12.12.2013 11:06 4,3 C 3,3 C 95 % 1029,1 hPa 0,0 l/m 2 min 0 min 0,0 UV-I 195 W/m 12,9 km/h (3 Bft)
12.12.2013 11:08 4,4 C 3,3 C 94 % 1029,0 hPa 0,0 l/m 2 min 0 min 0,0 UV-I 188 W/m 18,0 km/h (3 Bft)
12.12.2013 11:10 4,4 C 3,3 C 94 % 1029,0 hPa 0,0 l/m 2 min 0 min 0,0 UV-I 181 W/m 25,7 km/h (4 Bft)
12.12.2013 11:12 4,4 C 3,3 C 94 % 1028,9 hPa 0,0 l/m 2 min 0 min 0,0 UV-I 172 W/m 25,7 km/h (4 Bft)
12.12.2013 11:14 4,4 C 3,3 C 93 % 1029,0 hPa 0,0 l/m 0 min 0 min 0,0 UV-I 98 W/m 20,6 km/h (4 Bft)
12.12.2013 11:16 4,4 C 3,3 C 93 % 1029,1 hPa 0,0 l/m 2 min 0 min 0,0 UV-I 199 W/m 20,6 km/h (4 Bft)
12.12.2013 11:18 4,4 C 3,3 C 93 % 1028,9 hPa 0,0 l/m 0 min 0 min 0,0 UV-I 134 W/m 20,6 km/h (4 Bft)
12.12.2013 11:20 4,4 C 3,3 C 93 % 1029,0 hPa 0,0 l/m 2 min 0 min 0,0 UV-I 193 W/m 18,0 km/h (3 Bft)
12.12.2013 11:22 4,4 C 3,3 C 93 % 1028,9 hPa 0,0 l/m 2 min 0 min 0,0 UV-I 221 W/m 23,2 km/h (4 Bft)
12.12.2013 11:24 4,6 C 3,3 C 93 % 1028,9 hPa 0,0 l/m 2 min 0 min 0,0 UV-I 211 W/m 12,9 km/h (3 Bft)
12.12.2013 11:26 4,6 C 3,3 C 92 % 1028,9 hPa 0,0 l/m 2 min 0 min 0,0 UV-I 223 W/m 20,6 km/h (4 Bft)
12.12.2013 11:28 4,7 C 3,9 C 92 % 1028,9 hPa 0,0 l/m 2 min 0 min 0,0 UV-I 211 W/m 10,3 km/h (2 Bft)
12.12.2013 11:30 4,8 C 3,9 C 92 % 1028,9 hPa 0,0 l/m 2 min 0 min 0,0 UV-I 225 W/m 15,4 km/h (3 Bft)
12.12.2013 11:32 4,9 C 3,9 C 92 % 1028,9 hPa 0,0 l/m 0 min 0 min 0,0 UV-I 93 W/m 10,3 km/h (2 Bft)
12.12.2013 11:34 4,9 C 3,9 C 92 % 1028,9 hPa 0,0 l/m 0 min 0 min 0,0 UV-I 139 W/m 28,3 km/h (4 Bft)
12.12.2013 11:36 4,9 C 3,9 C 91 % 1028,9 hPa 0,0 l/m 2 min 0 min 0,0 UV-I 220 W/m 20,6 km/h (4 Bft)
12.12.2013 11:38 4,9 C 3,9 C 91 % 1028,9 hPa 0,0 l/m 2 min 0 min 0,0 UV-I 167 W/m 20,6 km/h (4 Bft)
12.12.2013 11:40 4,9 C 3,9 C 91 % 1028,8 hPa 0,0 l/m 2 min 0 min 0,0 UV-I 155 W/m 18,0 km/h (3 Bft)
12.12.2013 11:42 4,8 C 3,9 C 91 % 1028,9 hPa 0,0 l/m 0 min 0 min 0,0 UV-I 97 W/m 23,2 km/h (4 Bft)
12.12.2013 11:44 4,8 C 3,9 C 91 % 1028,9 hPa 0,0 l/m 2 min 0 min 0,0 UV-I 237 W/m 18,0 km/h (3 Bft)
12.12.2013 11:46 4,8 C 3,9 C 91 % 1028,9 hPa 0,0 l/m 0 min 0 min 0,0 UV-I 97 W/m 18,0 km/h (3 Bft)
12.12.2013 11:48 4,7 C 3,3 C 91 % 1028,9 hPa 0,0 l/m 0 min 0 min 0,0 UV-I 86 W/m 15,4 km/h (3 Bft)
12.12.2013 11:50 4,6 C 3,3 C 91 % 1028,8 hPa 0,0 l/m 0 min 0 min 0,0 UV-I 81 W/m 20,6 km/h (4 Bft)
12.12.2013 11:52 4,5 C 3,3 C 91 % 1028,9 hPa 0,0 l/m 0 min 0 min 0,0 UV-I 81 W/m 23,2 km/h (4 Bft)
12.12.2013 11:54 4,4 C 3,3 C 91 % 1028,9 hPa 0,0 l/m 0 min 0 min 0,0 UV-I 111 W/m 30,9 km/h (5 Bft)
12.12.2013 11:56 4,4 C 3,9 C 91 % 1028,9 hPa 0,0 l/m 0 min 0 min 0,0 UV-I 100 W/m 20,6 km/h (4 Bft)
12.12.2013 11:58 4,4 C 3,9 C 91 % 1028,8 hPa 0,0 l/m 0 min 0 min 0,0 UV-I 107 W/m 18,0 km/h (3 Bft)
12.12.2013 12:00 4,4 C 3,9 C 91 % 1028,8 hPa 0,0 l/m 0 min 0 min 0,0 UV-I 111 W/m 2,6 km/h (1 Bft)
12.12.2013 12:02 4,5 C 3,9 C 91 % 1028,8 hPa 0,0 l/m 0 min 0 min 0,0 UV-I 121 W/m 28,3 km/h (4 Bft)
12.12.2013 12:06 4,5 C 3,9 C 91 % 1028,8 hPa 0,0 l/m 0 min 0 min 0,0 UV-I 102 W/m 23,2 km/h (4 Bft)
12.12.2013 12:08 4,5 C 3,9 C 91 % 1028,8 hPa 0,0 l/m 0 min 0 min 0,0 UV-I 118 W/m 23,2 km/h (4 Bft)
12.12.2013 12:10 4,4 C 3,9 C 91 % 1028,8 hPa 0,0 l/m 0 min 0 min 0,0 UV-I 93 W/m 18,0 km/h (3 Bft)
12.12.2013 12:12 4,4 C 3,9 C 91 % 1028,8 hPa 0,0 l/m 0 min 0 min 0,0 UV-I 86 W/m 5,1 km/h (1 Bft)
12.12.2013 12:14 4,4 C 3,9 C 91 % 1028,8 hPa 0,0 l/m 0 min 0 min 0,0 UV-I 98 W/m 12,9 km/h (3 Bft)
12.12.2013 12:16 4,5 C 3,9 C 91 % 1028,8 hPa 0,0 l/m 0 min 0 min 0,0 UV-I 105 W/m 18,0 km/h (3 Bft)
12.12.2013 12:18 4,5 C 3,9 C 91 % 1028,8 hPa 0,0 l/m 0 min 0 min 0,0 UV-I 91 W/m 12,9 km/h (3 Bft)
12.12.2013 12:20 4,5 C 3,9 C 91 % 1028,7 hPa 0,0 l/m 0 min 0 min 0,0 UV-I 97 W/m 20,6 km/h (4 Bft)
12.12.2013 12:22 4,6 C 3,9 C 91 % 1028,7 hPa 0,0 l/m 0 min 0 min 0,0 UV-I 100 W/m 20,6 km/h (4 Bft)
12.12.2013 12:24 4,6 C 3,9 C 91 % 1028,8 hPa 0,0 l/m 0 min 0 min 0,0 UV-I 104 W/m 18,0 km/h (3 Bft)
12.12.2013 12:26 4,6 C 3,9 C 91 % 1028,8 hPa 0,0 l/m 0 min 0 min 0,0 UV-I 125 W/m 15,4 km/h (3 Bft)
12.12.2013 12:28 4,6 C 4,4 C 91 % 1028,8 hPa 0,0 l/m 0 min 0 min 0,0 UV-I 125 W/m 18,0 km/h (3 Bft)
12.12.2013 12:30 4,7 C 4,4 C 91 % 1028,6 hPa 0,0 l/m 0 min 0 min 0,0 UV-I 121 W/m 15,4 km/h (3 Bft)
12.12.2013 12:32 4,7 C 4,4 C 91 % 1028,6 hPa 0,0 l/m 0 min 0 min 0,0 UV-I 151 W/m 20,6 km/h (4 Bft)
12.12.2013 12:34 4,7 C 4,4 C 91 % 1028,6 hPa 0,0 l/m 0 min 0 min 0,0 UV-I 141 W/m 18,0 km/h (3 Bft)
12.12.2013 12:36 4,8 C 4,4 C 91 % 1028,6 hPa 0,0 l/m 0 min 0 min 0,0 UV-I 137 W/m 10,3 km/h (2 Bft)
12.12.2013 12:38 4,8 C 4,4 C 91 % 1028,6 hPa 0,0 l/m 0 min 0 min 0,0 UV-I 142 W/m 20,6 km/h (4 Bft)
12.12.2013 12:40 4,8 C 4,4 C 91 % 1028,4 hPa 0,0 l/m 0 min 0 min 0,0 UV-I 123 W/m 18,0 km/h (3 Bft)
12.12.2013 12:42 4,8 C 4,4 C 91 % 1028,4 hPa 0,0 l/m 0 min 0 min 0,0 UV-I 123 W/m 20,6 km/h (4 Bft)
12.12.2013 12:44 4,8 C 4,4 C 90 % 1028,4 hPa 0,0 l/m 0 min 0 min 0,0 UV-I 123 W/m 12,9 km/h (3 Bft)
12.12.2013 12:46 4,9 C 4,4 C 90 % 1028,4 hPa 0,0 l/m 0 min 0 min 0,0 UV-I 128 W/m 12,9 km/h (3 Bft)
12.12.2013 12:48 4,9 C 4,4 C 90 % 1028,4 hPa 0,0 l/m 2 min 0 min 0,0 UV-I 176 W/m 18,0 km/h (3 Bft)
12.12.2013 12:50 4,9 C 4,4 C 90 % 1028,3 hPa 0,0 l/m 0 min 0 min 0,0 UV-I 111 W/m 12,9 km/h (3 Bft)
12.12.2013 12:52 5,1 C 4,4 C 91 % 1028,4 hPa 0,0 l/m 2 min 0 min 0,0 UV-I 211 W/m 12,9 km/h (3 Bft)
12.12.2013 12:54 5,1 C 4,4 C 90 % 1028,4 hPa 0,0 l/m 2 min 0 min 0,0 UV-I 211 W/m 12,9 km/h (3 Bft)
12.12.2013 12:56 5,1 C 4,4 C 90 % 1028,3 hPa 0,0 l/m 0 min 0 min 0,0 UV-I 91 W/m 18,0 km/h (3 Bft)
12.12.2013 12:58 5,1 C 4,4 C 90 % 1028,2 hPa 0,0 l/m 0 min 0 min 0,0 UV-I 137 W/m 7,7 km/h (2 Bft)
12.12.2013 13:00 5,1 C 4,4 C 90 % 1028,2 hPa 0,0 l/m 0 min 0 min 0,0 UV-I 111 W/m 15,4 km/h (3 Bft)
12.12.2013 13:02 5,1 C 4,4 C 90 % 1028,2 hPa 0,0 l/m 2 min 0 min 0,0 UV-I 171 W/m 10,3 km/h (2 Bft)
12.12.2013 13:04 5,2 C 4,4 C 90 % 1028,2 hPa 0,0 l/m 2 min 0 min 0,0 UV-I 171 W/m 7,7 km/h (2 Bft)
12.12.2013 13:06 5,2 C 4,4 C 90 % 1028,2 hPa 0,0 l/m 0 min 0 min 0,0 UV-I 95 W/m 15,4 km/h (3 Bft)
12.12.2013 13:08 5,2 C 4,4 C 90 % 1028,1 hPa 0,0 l/m 0 min 0 min 0,0 UV-I 113 W/m 20,6 km/h (4 Bft)
12.12.2013 13:10 5,2 C 4,4 C 90 % 1028,1 hPa 0,0 l/m 2 min 0 min 0,0 UV-I 223 W/m 10,3 km/h (2 Bft)
12.12.2013 13:12 5,4 C 4,4 C 90 % 1028,1 hPa 0,0 l/m 2 min 0 min 0,0 UV-I 218 W/m 15,4 km/h (3 Bft)
12.12.2013 13:14 5,5 C 4,4 C 89 % 1028,1 hPa 0,0 l/m 2 min 0 min 0,0 UV-I 199 W/m 15,4 km/h (3 Bft)
12.12.2013 13:16 5,6 C 4,4 C 89 % 1028,1 hPa 0,0 l/m 2 min 0 min 0,0 UV-I 232 W/m 12,9 km/h (3 Bft)
12.12.2013 13:18 5,6 C 4,4 C 89 % 1028,1 hPa 0,0 l/m 2 min 0 min 0,0 UV-I 192 W/m 18,0 km/h (3 Bft)
12.12.2013 13:20 5,6 C 4,4 C 88 % 1028,1 hPa 0,0 l/m 2 min 0 min 0,0 UV-I 204 W/m 12,9 km/h (3 Bft)
12.12.2013 13:22 5,6 C 4,4 C 88 % 1028,0 hPa 0,0 l/m 2 min 0 min 0,0 UV-I 258 W/m 18,0 km/h (3 Bft)
12.12.2013 13:24 5,6 C 4,4 C 88 % 1028,0 hPa 0,0 l/m 2 min 0 min 0,0 UV-I 221 W/m 23,2 km/h (4 Bft)
12.12.2013 13:26 5,6 C 4,4 C 88 % 1027,9 hPa 0,0 l/m 2 min 0 min 0,0 UV-I 209 W/m 15,4 km/h (3 Bft)
12.12.2013 13:28 5,7 C 4,4 C 88 % 1028,0 hPa 0,0 l/m 2 min 0 min 0,0 UV-I 234 W/m 12,9 km/h (3 Bft)
12.12.2013 13:30 5,7 C 5,0 C 88 % 1028,0 hPa 0,0 l/m 2 min 0 min 0,0 UV-I 229 W/m 23,2 km/h (4 Bft)
12.12.2013 13:32 5,8 C 5,0 C 88 % 1027,9 hPa 0,0 l/m 2 min 0 min 0,0 UV-I 209 W/m 18,0 km/h (3 Bft)
12.12.2013 13:34 5,9 C 5,0 C 87 % 1027,9 hPa 0,0 l/m 2 min 0 min 0,0 UV-I 214 W/m 20,6 km/h (4 Bft)
12.12.2013 13:36 5,9 C 5,0 C 87 % 1027,9 hPa 0,0 l/m 2 min 0 min 0,0 UV-I 199 W/m 5,1 km/h (1 Bft)
12.12.2013 13:38 5,9 C 5,0 C 87 % 1027,9 hPa 0,0 l/m 2 min 0 min 0,0 UV-I 197 W/m 10,3 km/h (2 Bft)
12.12.2013 13:40 6,0 C 5,0 C 87 % 1027,9 hPa 0,0 l/m 2 min 0 min 0,0 UV-I 197 W/m 15,4 km/h (3 Bft)
12.12.2013 13:42 5,9 C 5,0 C 87 % 1027,8 hPa 0,0 l/m 2 min 0 min 0,0 UV-I 195 W/m 18,0 km/h (3 Bft)
12.12.2013 13:44 5,9 C 5,0 C 87 % 1027,8 hPa 0,0 l/m 2 min 0 min 0,0 UV-I 193 W/m 23,2 km/h (4 Bft)
12.12.2013 13:46 5,9 C 5,0 C 87 % 1027,8 hPa 0,0 l/m 2 min 0 min 0,0 UV-I 193 W/m 12,9 km/h (3 Bft)
12.12.2013 13:48 5,9 C 5,0 C 87 % 1027,7 hPa 0,0 l/m 2 min 0 min 0,0 UV-I 190 W/m 15,4 km/h (3 Bft)
12.12.2013 13:50 5,9 C 4,4 C 87 % 1027,7 hPa 0,0 l/m 2 min 0 min 0,0 UV-I 190 W/m 15,4 km/h (3 Bft)
12.12.2013 13:52 5,9 C 5,0 C 87 % 1027,8 hPa 0,0 l/m 2 min 0 min 0,0 UV-I 186 W/m 15,4 km/h (3 Bft)
12.12.2013 13:54 6,0 C 5,0 C 87 % 1027,8 hPa 0,0 l/m 2 min 0 min 0,0 UV-I 185 W/m 15,4 km/h (3 Bft)
12.12.2013 13:56 6,0 C 5,0 C 87 % 1027,8 hPa 0,0 l/m 2 min 0 min 0,0 UV-I 178 W/m 15,4 km/h (3 Bft)
12.12.2013 13:58 6,0 C 5,0 C 87 % 1027,8 hPa 0,0 l/m 2 min 0 min 0,0 UV-I 183 W/m 15,4 km/h (3 Bft)
12.12.2013 14:00 6,0 C 5,0 C 87 % 1027,7 hPa 0,0 l/m 2 min 0 min 0,0 UV-I 178 W/m 15,4 km/h (3 Bft)
12.12.2013 14:02 5,9 C 5,0 C 87 % 1027,7 hPa 0,0 l/m 2 min 0 min 0,0 UV-I 178 W/m 20,6 km/h (4 Bft)
12.12.2013 14:04 5,9 C 5,0 C 87 % 1027,6 hPa 0,0 l/m 2 min 0 min 0,0 UV-I 176 W/m 15,4 km/h (3 Bft)
12.12.2013 14:06 6,0 C 5,0 C 87 % 1027,6 hPa 0,0 l/m 2 min 0 min 0,0 UV-I 172 W/m 18,0 km/h (3 Bft)
12.12.2013 14:08 6,0 C 5,0 C 87 % 1027,6 hPa 0,0 l/m 2 min 0 min 0,0 UV-I 171 W/m 15,4 km/h (3 Bft)
12.12.2013 14:10 6,0 C 4,4 C 87 % 1027,6 hPa 0,0 l/m 2 min 0 min 0,0 UV-I 160 W/m 12,9 km/h (3 Bft)
12.12.2013 14:12 5,9 C 4,4 C 87 % 1027,6 hPa 0,0 l/m 2 min 0 min 0,0 UV-I 163 W/m 7,7 km/h (2 Bft)
12.12.2013 14:14 5,9 C 4,4 C 87 % 1027,6 hPa 0,0 l/m 2 min 0 min 0,0 UV-I 162 W/m 10,3 km/h (2 Bft)
12.12.2013 14:16 5,9 C 4,4 C 87 % 1027,6 hPa 0,0 l/m 2 min 0 min 0,0 UV-I 156 W/m 10,3 km/h (2 Bft)
12.12.2013 14:18 6,0 C 4,4 C 87 % 1027,6 hPa 0,0 l/m 2 min 0 min 0,0 UV-I 156 W/m 15,4 km/h (3 Bft)
12.12.2013 14:20 6,0 C 4,4 C 87 % 1027,6 hPa 0,0 l/m 2 min 0 min 0,0 UV-I 155 W/m 5,1 km/h (1 Bft)
12.12.2013 14:22 6,0 C 5,0 C 87 % 1027,6 hPa 0,0 l/m 2 min 0 min 0,0 UV-I 149 W/m 7,7 km/h (2 Bft)
12.12.2013 14:24 6,0 C 5,0 C 87 % 1027,5 hPa 0,0 l/m 2 min 0 min 0,0 UV-I 144 W/m 12,9 km/h (3 Bft)
12.12.2013 14:26 6,0 C 5,0 C 87 % 1027,4 hPa 0,0 l/m 2 min 0 min 0,0 UV-I 146 W/m 7,7 km/h (2 Bft)
12.12.2013 14:28 5,9 C 4,4 C 87 % 1027,4 hPa 0,0 l/m 2 min 0 min 0,0 UV-I 144 W/m 2,6 km/h (1 Bft)
12.12.2013 14:30 5,9 C 4,4 C 87 % 1027,4 hPa 0,0 l/m 2 min 0 min 0,0 UV-I 137 W/m 5,1 km/h (1 Bft)
12.12.2013 14:32 5,9 C 4,4 C 87 % 1027,5 hPa 0,0 l/m 2 min 0 min 0,0 UV-I 137 W/m 7,7 km/h (2 Bft)
12.12.2013 14:34 5,9 C 4,4 C 87 % 1027,5 hPa 0,0 l/m 2 min 0 min 0,0 UV-I 134 W/m 15,4 km/h (3 Bft)
12.12.2013 14:36 5,9 C 4,4 C 87 % 1027,5 hPa 0,0 l/m 2 min 0 min 0,0 UV-I 134 W/m 12,9 km/h (3 Bft)
12.12.2013 14:38 5,9 C 4,4 C 87 % 1027,4 hPa 0,0 l/m 2 min 0 min 0,0 UV-I 130 W/m 15,4 km/h (3 Bft)
12.12.2013 14:40 5,9 C 4,4 C 87 % 1027,3 hPa 0,0 l/m 2 min 0 min 0,0 UV-I 130 W/m 12,9 km/h (3 Bft)
12.12.2013 14:42 5,9 C 4,4 C 87 % 1027,3 hPa 0,0 l/m 2 min 0 min 0,0 UV-I 125 W/m 10,3 km/h (2 Bft)
12.12.2013 14:44 5,9 C 4,4 C 87 % 1027,4 hPa 0,0 l/m 2 min 0 min 0,0 UV-I 123 W/m 15,4 km/h (3 Bft)
12.12.2013 14:46 5,9 C 4,4 C 87 % 1027,4 hPa 0,0 l/m 2 min 0 min 0,0 UV-I 121 W/m 15,4 km/h (3 Bft)
12.12.2013 14:48 5,9 C 4,4 C 87 % 1027,4 hPa 0,0 l/m 2 min 0 min 0,0 UV-I 118 W/m 15,4 km/h (3 Bft)
12.12.2013 14:50 5,8 C 4,4 C 87 % 1027,4 hPa 0,0 l/m 2 min 0 min 0,0 UV-I 97 W/m 15,4 km/h (3 Bft)
12.12.2013 14:52 5,8 C 4,4 C 87 % 1027,3 hPa 0,0 l/m 0 min 0 min 0,0 UV-I 53 W/m 10,3 km/h (2 Bft)
12.12.2013 14:54 5,8 C 4,4 C 87 % 1027,3 hPa 0,0 l/m 0 min 0 min 0,0 UV-I 37 W/m 15,4 km/h (3 Bft)
12.12.2013 14:56 5,8 C 4,4 C 87 % 1027,3 hPa 0,0 l/m 0 min 0 min 0,0 UV-I 37 W/m 15,4 km/h (3 Bft)
12.12.2013 14:58 5,8 C 4,4 C 87 % 1027,2 hPa 0,0 l/m 0 min 0 min 0,0 UV-I 35 W/m 15,4 km/h (3 Bft)
12.12.2013 15:00 5,8 C 4,4 C 87 % 1027,3 hPa 0,0 l/m 0 min 0 min 0,0 UV-I 35 W/m 7,7 km/h (2 Bft)
12.12.2013 15:02 5,8 C 4,4 C 87 % 1027,3 hPa 0,0 l/m 0 min 0 min 0,0 UV-I 35 W/m 15,4 km/h (3 Bft)
12.12.2013 15:04 5,8 C 4,4 C 87 % 1027,3 hPa 0,0 l/m 0 min 0 min 0,0 UV-I 33 W/m 12,9 km/h (3 Bft)
12.12.2013 15:06 5,7 C 4,4 C 87 % 1027,3 hPa 0,0 l/m 0 min 0 min 0,0 UV-I 33 W/m 7,7 km/h (2 Bft)
12.12.2013 15:08 5,7 C 4,4 C 87 % 1027,4 hPa 0,0 l/m 0 min 0 min 0,0 UV-I 33 W/m 12,9 km/h (3 Bft)
12.12.2013 15:10 5,7 C 4,4 C 87 % 1027,4 hPa 0,0 l/m 0 min 0 min 0,0 UV-I 33 W/m 5,1 km/h (1 Bft)
12.12.2013 15:12 5,7 C 3,9 C 87 % 1027,4 hPa 0,0 l/m 0 min 0 min 0,0 UV-I 32 W/m 10,3 km/h (2 Bft)
12.12.2013 15:14 5,6 C 3,9 C 87 % 1027,4 hPa 0,0 l/m 0 min 0 min 0,0 UV-I 32 W/m 5,1 km/h (1 Bft)
12.12.2013 15:16 5,6 C 3,9 C 87 % 1027,4 hPa 0,0 l/m 0 min 0 min 0,0 UV-I 32 W/m 10,3 km/h (2 Bft)
12.12.2013 15:18 5,6 C 3,9 C 87 % 1027,4 hPa 0,0 l/m 0 min 0 min 0,0 UV-I 30 W/m 5,1 km/h (1 Bft)
12.12.2013 15:20 5,6 C 3,9 C 88 % 1027,5 hPa 0,0 l/m 0 min 0 min 0,0 UV-I 30 W/m 10,3 km/h (2 Bft)
12.12.2013 15:22 5,6 C 3,9 C 88 % 1027,5 hPa 0,0 l/m 0 min 0 min 0,0 UV-I 28 W/m 5,1 km/h (1 Bft)
12.12.2013 15:24 5,5 C 3,9 C 88 % 1027,5 hPa 0,0 l/m 0 min 0 min 0,0 UV-I 28 W/m 5,1 km/h (1 Bft)
12.12.2013 15:26 5,4 C 3,9 C 88 % 1027,5 hPa 0,0 l/m 0 min 0 min 0,0 UV-I 28 W/m 10,3 km/h (2 Bft)
12.12.2013 15:28 5,4 C 3,9 C 88 % 1027,5 hPa 0,0 l/m 0 min 0 min 0,0 UV-I 26 W/m 7,7 km/h (2 Bft)
12.12.2013 15:30 5,4 C 3,9 C 88 % 1027,5 hPa 0,0 l/m 0 min 0 min 0,0 UV-I 25 W/m 10,3 km/h (2 Bft)
12.12.2013 15:32 5,4 C 3,9 C 88 % 1027,5 hPa 0,0 l/m 0 min 0 min 0,0 UV-I 25 W/m 10,3 km/h (2 Bft)
12.12.2013 15:34 5,3 C 3,9 C 88 % 1027,5 hPa 0,0 l/m 0 min 0 min 0,0 UV-I 25 W/m 10,3 km/h (2 Bft)
12.12.2013 15:36 5,3 C 3,9 C 88 % 1027,6 hPa 0,0 l/m 0 min 0 min 0,0 UV-I 25 W/m 10,3 km/h (2 Bft)
12.12.2013 15:38 5,2 C 3,9 C 89 % 1027,5 hPa 0,0 l/m 0 min 0 min 0,0 UV-I 23 W/m 12,9 km/h (3 Bft)
12.12.2013 15:40 5,2 C 3,9 C 89 % 1027,5 hPa 0,0 l/m 0 min 0 min 0,0 UV-I 21 W/m 10,3 km/h (2 Bft)
12.12.2013 15:42 5,2 C 3,3 C 89 % 1027,5 hPa 0,0 l/m 0 min 0 min 0,0 UV-I 21 W/m 5,1 km/h (1 Bft)
12.12.2013 15:44 5,2 C 3,3 C 89 % 1027,5 hPa 0,0 l/m 0 min 0 min 0,0 UV-I 21 W/m 7,7 km/h (2 Bft)
12.12.2013 15:46 5,1 C 3,3 C 89 % 1027,5 hPa 0,0 l/m 0 min 0 min 0,0 UV-I 19 W/m 7,7 km/h (2 Bft)
12.12.2013 15:48 5,1 C 3,3 C 89 % 1027,4 hPa 0,0 l/m 0 min 0 min 0,0 UV-I 18 W/m 2,6 km/h (1 Bft)
12.12.2013 15:50 5,0 C 3,3 C 89 % 1027,4 hPa 0,0 l/m 0 min 0 min 0,0 UV-I 18 W/m 10,3 km/h (2 Bft)
12.12.2013 15:52 4,9 C 3,3 C 89 % 1027,4 hPa 0,0 l/m 0 min 0 min 0,0 UV-I 16 W/m 7,7 km/h (2 Bft)
12.12.2013 15:54 4,9 C 3,3 C 89 % 1027,5 hPa 0,0 l/m 0 min 0 min 0,0 UV-I 16 W/m 10,3 km/h (2 Bft)
12.12.2013 15:56 4,9 C 3,3 C 89 % 1027,5 hPa 0,0 l/m 0 min 0 min 0,0 UV-I 16 W/m 10,3 km/h (2 Bft)
12.12.2013 15:58 4,8 C 3,3 C 89 % 1027,5 hPa 0,0 l/m 0 min 0 min 0,0 UV-I 14 W/m 5,1 km/h (1 Bft)
12.12.2013 16:00 4,8 C 3,3 C 89 % 1027,4 hPa 0,0 l/m 0 min 0 min 0,0 UV-I 12 W/m 7,7 km/h (2 Bft)
12.12.2013 16:02 4,7 C 3,3 C 89 % 1027,5 hPa 0,0 l/m 0 min 0 min 0,0 UV-I 11 W/m 7,7 km/h (2 Bft)
12.12.2013 16:04 4,7 C 2,8 C 90 % 1027,5 hPa 0,0 l/m 0 min 0 min 0,0 UV-I 11 W/m 10,3 km/h (2 Bft)
12.12.2013 16:06 4,7 C 2,8 C 90 % 1027,3 hPa 0,0 l/m 0 min 0 min 0,0 UV-I 9 W/m 12,9 km/h (3 Bft)
12.12.2013 16:08 4,6 C 2,8 C 90 % 1027,3 hPa 0,0 l/m 0 min 0 min 0,0 UV-I 9 W/m 10,3 km/h (2 Bft)
12.12.2013 16:10 4,6 C 2,8 C 90 % 1027,4 hPa 0,0 l/m 0 min 0 min 0,0 UV-I 7 W/m 7,7 km/h (2 Bft)
12.12.2013 16:12 4,5 C 2,8 C 90 % 1027,4 hPa 0,0 l/m 0 min 0 min 0,0 UV-I 7 W/m 5,1 km/h (1 Bft)
12.12.2013 16:14 4,4 C 2,8 C 90 % 1027,4 hPa 0,0 l/m 0 min 0 min 0,0 UV-I 7 W/m 5,1 km/h (1 Bft)
12.12.2013 16:16 4,4 C 2,8 C 90 % 1027,3 hPa 0,0 l/m 0 min 0 min 0,0 UV-I 7 W/m 10,3 km/h (2 Bft)
12.12.2013 16:18 4,3 C 2,8 C 90 % 1027,3 hPa 0,0 l/m 0 min 0 min 0,0 UV-I 5 W/m 2,6 km/h (1 Bft)
12.12.2013 16:20 4,2 C 2,8 C 90 % 1027,3 hPa 0,0 l/m 0 min 0 min 0,0 UV-I 5 W/m 7,7 km/h (2 Bft)
12.12.2013 16:22 4,2 C 2,2 C 90 % 1027,2 hPa 0,0 l/m 0 min 0 min 0,0 UV-I 5 W/m 5,1 km/h (1 Bft)
12.12.2013 16:24 4,1 C 2,2 C 95 % 1027,1 hPa 0,0 l/m 0 min 0 min 0,0 UV-I 5 W/m 10,3 km/h (2 Bft)
12.12.2013 16:26 4,1 C 2,8 C 90 % 1027,1 hPa 0,0 l/m 0 min 0 min 0,0 UV-I 0 W/m 12,9 km/h (3 Bft)
12.12.2013 16:28 4,1 C 2,2 C 91 % 1027,0 hPa 0,0 l/m 0 min 0 min 0,0 UV-I 0 W/m 10,3 km/h (2 Bft)
12.12.2013 16:30 4,0 C 2,2 C 91 % 1027,0 hPa 0,0 l/m 0 min 0 min 0,0 UV-I 0 W/m 12,9 km/h (3 Bft)
12.12.2013 16:32 4,0 C 2,2 C 91 % 1026,9 hPa 0,0 l/m 0 min 0 min 0,0 UV-I 0 W/m 10,3 km/h (2 Bft)
12.12.2013 16:34 3,9 C 2,2 C 91 % 1027,0 hPa 0,0 l/m 0 min 0 min 0,0 UV-I 0 W/m 15,4 km/h (3 Bft)
12.12.2013 16:36 3,9 C 2,2 C 91 % 1027,0 hPa 0,0 l/m 0 min 0 min 0,0 UV-I 0 W/m 12,9 km/h (3 Bft)
12.12.2013 16:38 3,9 C 2,2 C 91 % 1027,0 hPa 0,0 l/m 0 min 0 min 0,0 UV-I 0 W/m 12,9 km/h (3 Bft)
12.12.2013 16:40 3,8 C 2,2 C 91 % 1027,0 hPa 0,0 l/m 0 min 0 min 0,0 UV-I 0 W/m 7,7 km/h (2 Bft)
12.12.2013 16:42 3,8 C 2,2 C 91 % 1027,0 hPa 0,0 l/m 0 min 0 min 0,0 UV-I 0 W/m 12,9 km/h (3 Bft)
12.12.2013 16:44 3,7 C 2,2 C 91 % 1027,0 hPa 0,0 l/m 0 min 0 min 0,0 UV-I 0 W/m 10,3 km/h (2 Bft)
12.12.2013 16:46 3,7 C 2,2 C 91 % 1027,1 hPa 0,0 l/m 0 min 0 min 0,0 UV-I 0 W/m 10,3 km/h (2 Bft)
12.12.2013 16:48 3,7 C 2,2 C 91 % 1027,2 hPa 0,0 l/m 0 min 0 min 0,0 UV-I 0 W/m 12,9 km/h (3 Bft)
12.12.2013 16:50 3,6 C 2,2 C 91 % 1027,1 hPa 0,0 l/m 0 min 0 min 0,0 UV-I 0 W/m 12,9 km/h (3 Bft)
12.12.2013 16:52 3,6 C 2,2 C 92 % 1027,3 hPa 0,0 l/m 0 min 0 min 0,0 UV-I 0 W/m 15,4 km/h (3 Bft)
12.12.2013 16:54 3,6 C 2,2 C 92 % 1027,1 hPa 0,0 l/m 0 min 0 min 0,0 UV-I 0 W/m 7,7 km/h (2 Bft)
12.12.2013 16:56 3,5 C 2,2 C 92 % 1027,1 hPa 0,0 l/m 0 min 0 min 0,0 UV-I 0 W/m 10,3 km/h (2 Bft)
12.12.2013 16:58 3,4 C 2,2 C 92 % 1027,2 hPa 0,0 l/m 0 min 0 min 0,0 UV-I 0 W/m 7,7 km/h (2 Bft)
12.12.2013 17:00 3,4 C 1,7 C 92 % 1027,2 hPa 0,0 l/m 0 min 0 min 0,0 UV-I 0 W/m 10,3 km/h (2 Bft)
12.12.2013 17:02 3,4 C 1,7 C 92 % 1027,2 hPa 0,0 l/m 0 min 0 min 0,0 UV-I 0 W/m 10,3 km/h (2 Bft)
12.12.2013 17:04 3,4 C 1,7 C 92 % 1027,2 hPa 0,0 l/m 0 min 0 min 0,0 UV-I 0 W/m 7,7 km/h (2 Bft)
12.12.2013 17:06 3,3 C 1,7 C 92 % 1027,2 hPa 0,0 l/m 0 min 0 min 0,0 UV-I 0 W/m 10,3 km/h (2 Bft)
12.12.2013 17:08 3,3 C 1,7 C 92 % 1027,3 hPa 0,0 l/m 0 min 0 min 0,0 UV-I 0 W/m 15,4 km/h (3 Bft)
12.12.2013 17:10 3,3 C 1,7 C 92 % 1027,2 hPa 0,0 l/m 0 min 0 min 0,0 UV-I 0 W/m 7,7 km/h (2 Bft)
12.12.2013 17:12 3,3 C 1,7 C 92 % 1027,3 hPa 0,0 l/m 0 min 0 min 0,0 UV-I 0 W/m 12,9 km/h (3 Bft)
12.12.2013 17:14 3,2 C 1,7 C 92 % 1027,2 hPa 0,0 l/m 0 min 0 min 0,0 UV-I 0 W/m 10,3 km/h (2 Bft)
12.12.2013 17:16 3,2 C 1,7 C 92 % 1027,2 hPa 0,0 l/m 0 min 0 min 0,0 UV-I 0 W/m 7,7 km/h (2 Bft)
12.12.2013 17:18 3,2 C 1,7 C 92 % 1027,3 hPa 0,0 l/m 0 min 0 min 0,0 UV-I 0 W/m 5,1 km/h (1 Bft)
12.12.2013 17:20 3,2 C 1,7 C 92 % 1027,2 hPa 0,0 l/m 0 min 0 min 0,0 UV-I 0 W/m 15,4 km/h (3 Bft)
12.12.2013 17:22 3,2 C 1,7 C 92 % 1027,2 hPa 0,0 l/m 0 min 0 min 0,0 UV-I 0 W/m 7,7 km/h (2 Bft)
12.12.2013 17:24 3,2 C 1,7 C 92 % 1027,2 hPa 0,0 l/m 0 min 0 min 0,0 UV-I 0 W/m 20,6 km/h (4 Bft)
12.12.2013 17:26 3,2 C 1,7 C 92 % 1027,2 hPa 0,0 l/m 0 min 0 min 0,0 UV-I 0 W/m 10,3 km/h (2 Bft)
12.12.2013 17:28 3,1 C 1,7 C 92 % 1027,3 hPa 0,0 l/m 0 min 0 min 0,0 UV-I 0 W/m 10,3 km/h (2 Bft)
12.12.2013 17:30 3,1 C 1,7 C 92 % 1027,2 hPa 0,0 l/m 0 min 0 min 0,0 UV-I 0 W/m 12,9 km/h (3 Bft)
12.12.2013 17:32 3,1 C 1,7 C 93 % 1027,1 hPa 0,0 l/m 0 min 0 min 0,0 UV-I 0 W/m 12,9 km/h (3 Bft)
12.12.2013 17:34 3,1 C 1,7 C 93 % 1027,2 hPa 0,0 l/m 0 min 0 min 0,0 UV-I 0 W/m 10,3 km/h (2 Bft)
12.12.2013 17:36 3,0 C 1,7 C 93 % 1027,2 hPa 0,0 l/m 0 min 0 min 0,0 UV-I 0 W/m 12,9 km/h (3 Bft)
12.12.2013 17:38 3,0 C 1,7 C 93 % 1027,1 hPa 0,0 l/m 0 min 0 min 0,0 UV-I 0 W/m 12,9 km/h (3 Bft)
12.12.2013 17:40 3,0 C 1,7 C 93 % 1027,1 hPa 0,0 l/m 0 min 0 min 0,0 UV-I 0 W/m 10,3 km/h (2 Bft)
12.12.2013 17:42 2,9 C 1,7 C 93 % 1027,0 hPa 0,0 l/m 0 min 0 min 0,0 UV-I 0 W/m 18,0 km/h (3 Bft)
12.12.2013 17:44 2,9 C 1,7 C 93 % 1027,1 hPa 0,0 l/m 0 min 0 min 0,0 UV-I 0 W/m 12,9 km/h (3 Bft)
12.12.2013 17:46 2,9 C 1,7 C 93 % 1027,2 hPa 0,0 l/m 0 min 0 min 0,0 UV-I 0 W/m 15,4 km/h (3 Bft)
12.12.2013 17:48 2,9 C 1,7 C 93 % 1027,1 hPa 0,0 l/m 0 min 0 min 0,0 UV-I 0 W/m 7,7 km/h (2 Bft)
12.12.2013 17:50 2,9 C 1,7 C 93 % 1027,1 hPa 0,0 l/m 0 min 0 min 0,0 UV-I 0 W/m 20,6 km/h (4 Bft)
12.12.2013 17:52 2,9 C 1,7 C 93 % 1027,1 hPa 0,0 l/m 0 min 0 min 0,0 UV-I 0 W/m 18,0 km/h (3 Bft)
12.12.2013 17:54 2,9 C 1,7 C 93 % 1027,2 hPa 0,0 l/m 0 min 0 min 0,0 UV-I 0 W/m 15,4 km/h (3 Bft)
12.12.2013 17:56 2,9 C 1,7 C 93 % 1027,3 hPa 0,0 l/m 0 min 0 min 0,0 UV-I 0 W/m 18,0 km/h (3 Bft)
12.12.2013 17:58 2,8 C 1,7 C 93 % 1027,3 hPa 0,0 l/m 0 min 0 min 0,0 UV-I 0 W/m 15,4 km/h (3 Bft)
12.12.2013 18:00 2,8 C 1,7 C 93 % 1027,2 hPa 0,0 l/m 0 min 0 min 0,0 UV-I 0 W/m 12,9 km/h (3 Bft)
12.12.2013 18:02 2,8 C 1,7 C 93 % 1027,2 hPa 0,0 l/m 0 min 0 min 0,0 UV-I 0 W/m 15,4 km/h (3 Bft)
12.12.2013 18:04 2,8 C 1,1 C 93 % 1027,1 hPa 0,0 l/m 0 min 0 min 0,0 UV-I 0 W/m 10,3 km/h (2 Bft)
12.12.2013 18:06 2,8 C 1,1 C 93 % 1027,1 hPa 0,0 l/m 0 min 0 min 0,0 UV-I 0 W/m 18,0 km/h (3 Bft)
12.12.2013 18:08 2,7 C 1,1 C 93 % 1027,2 hPa 0,0 l/m 0 min 0 min 0,0 UV-I 0 W/m 15,4 km/h (3 Bft)
12.12.2013 18:10 2,7 C 1,1 C 93 % 1027,2 hPa 0,0 l/m 0 min 0 min 0,0 UV-I 0 W/m 15,4 km/h (3 Bft)
12.12.2013 18:12 2,7 C 1,1 C 93 % 1027,2 hPa 0,0 l/m 0 min 0 min 0,0 UV-I 0 W/m 15,4 km/h (3 Bft)
12.12.2013 18:14 2,7 C 1,1 C 93 % 1027,3 hPa 0,0 l/m 0 min 0 min 0,0 UV-I 0 W/m 15,4 km/h (3 Bft)
12.12.2013 18:16 2,6 C 1,1 C 93 % 1027,2 hPa 0,0 l/m 0 min 0 min 0,0 UV-I 0 W/m 20,6 km/h (4 Bft)
12.12.2013 18:18 2,6 C 1,1 C 93 % 1027,2 hPa 0,0 l/m 0 min 0 min 0,0 UV-I 0 W/m 15,4 km/h (3 Bft)
12.12.2013 18:20 2,6 C 1,1 C 93 % 1027,0 hPa 0,0 l/m 0 min 0 min 0,0 UV-I 0 W/m 18,0 km/h (3 Bft)
12.12.2013 18:22 2,6 C 1,1 C 93 % 1027,0 hPa 0,0 l/m 0 min 0 min 0,0 UV-I 0 W/m 18,0 km/h (3 Bft)
12.12.2013 18:24 2,6 C 1,1 C 93 % 1027,0 hPa 0,0 l/m 0 min 0 min 0,0 UV-I 0 W/m 20,6 km/h (4 Bft)
12.12.2013 18:26 2,5 C 1,1 C 93 % 1027,0 hPa 0,0 l/m 0 min 0 min 0,0 UV-I 0 W/m 15,4 km/h (3 Bft)
12.12.2013 18:28 2,5 C 1,1 C 93 % 1027,0 hPa 0,0 l/m 0 min 0 min 0,0 UV-I 0 W/m 18,0 km/h (3 Bft)
12.12.2013 18:30 2,4 C 1,1 C 93 % 1027,0 hPa 0,0 l/m 0 min 0 min 0,0 UV-I 0 W/m 20,6 km/h (4 Bft)
12.12.2013 18:32 2,4 C 1,1 C 93 % 1027,1 hPa 0,0 l/m 0 min 0 min 0,0 UV-I 0 W/m 18,0 km/h (3 Bft)
12.12.2013 18:34 2,4 C 1,1 C 93 % 1027,0 hPa 0,0 l/m 0 min 0 min 0,0 UV-I 0 W/m 18,0 km/h (3 Bft)
12.12.2013 18:36 2,4 C 1,1 C 93 % 1027,1 hPa 0,0 l/m 0 min 0 min 0,0 UV-I 0 W/m 25,7 km/h (4 Bft)
12.12.2013 18:38 2,4 C 1,1 C 93 % 1027,1 hPa 0,0 l/m 0 min 0 min 0,0 UV-I 0 W/m 20,6 km/h (4 Bft)
12.12.2013 18:40 2,3 C 1,1 C 94 % 1027,1 hPa 0,0 l/m 0 min 0 min 0,0 UV-I 0 W/m 18,0 km/h (3 Bft)
12.12.2013 18:42 2,3 C 1,1 C 94 % 1027,2 hPa 0,0 l/m 0 min 0 min 0,0 UV-I 0 W/m 15,4 km/h (3 Bft)
12.12.2013 18:44 2,3 C 1,1 C 94 % 1027,2 hPa 0,0 l/m 0 min 0 min 0,0 UV-I 0 W/m 18,0 km/h (3 Bft)
12.12.2013 18:46 2,3 C 1,1 C 94 % 1027,2 hPa 0,0 l/m 0 min 0 min 0,0 UV-I 0 W/m 15,4 km/h (3 Bft)
12.12.2013 18:48 2,2 C 1,1 C 94 % 1027,2 hPa 0,0 l/m 0 min 0 min 0,0 UV-I 0 W/m 12,9 km/h (3 Bft)
12.12.2013 18:50 2,2 C 1,1 C 94 % 1027,3 hPa 0,0 l/m 0 min 0 min 0,0 UV-I 0 W/m 10,3 km/h (2 Bft)
12.12.2013 18:52 2,2 C 1,1 C 94 % 1027,3 hPa 0,0 l/m 0 min 0 min 0,0 UV-I 0 W/m 10,3 km/h (2 Bft)
12.12.2013 18:54 2,1 C 1,1 C 93 % 1027,3 hPa 0,0 l/m 0 min 0 min 0,0 UV-I 0 W/m 12,9 km/h (3 Bft)
12.12.2013 18:56 2,1 C 1,1 C 93 % 1027,3 hPa 0,0 l/m 0 min 0 min 0,0 UV-I 0 W/m 23,2 km/h (4 Bft)
12.12.2013 18:58 2,1 C 1,1 C 94 % 1027,3 hPa 0,0 l/m 0 min 0 min 0,0 UV-I 0 W/m 15,4 km/h (3 Bft)
12.12.2013 19:00 2,1 C 1,1 C 94 % 1027,3 hPa 0,0 l/m 0 min 0 min 0,0 UV-I 0 W/m 15,4 km/h (3 Bft)
12.12.2013 19:02 2,1 C 1,1 C 94 % 1027,3 hPa 0,0 l/m 0 min 0 min 0,0 UV-I 0 W/m 20,6 km/h (4 Bft)
12.12.2013 19:04 2,1 C 1,1 C 94 % 1027,3 hPa 0,0 l/m 0 min 0 min 0,0 UV-I 0 W/m 15,4 km/h (3 Bft)
12.12.2013 19:06 2,1 C 0,6 C 94 % 1027,3 hPa 0,0 l/m 0 min 0 min 0,0 UV-I 0 W/m 10,3 km/h (2 Bft)
12.12.2013 19:08 2,0 C 0,6 C 94 % 1027,2 hPa 0,0 l/m 0 min 0 min 0,0 UV-I 0 W/m 5,1 km/h (1 Bft)
12.12.2013 19:10 1,9 C 0,6 C 94 % 1027,3 hPa 0,0 l/m 0 min 0 min 0,0 UV-I 0 W/m 15,4 km/h (3 Bft)
12.12.2013 19:12 1,9 C 0,6 C 94 % 1027,3 hPa 0,0 l/m 0 min 0 min 0,0 UV-I 0 W/m 18,0 km/h (3 Bft)
12.12.2013 19:14 1,9 C 0,6 C 94 % 1027,3 hPa 0,0 l/m 0 min 0 min 0,0 UV-I 0 W/m 15,4 km/h (3 Bft)
12.12.2013 19:16 1,9 C 0,6 C 94 % 1027,2 hPa 0,0 l/m 0 min 0 min 0,0 UV-I 0 W/m 10,3 km/h (2 Bft)
12.12.2013 19:18 1,9 C 0,6 C 94 % 1027,2 hPa 0,0 l/m 0 min 0 min 0,0 UV-I 0 W/m 7,7 km/h (2 Bft)
12.12.2013 19:20 1,8 C 0,6 C 94 % 1027,3 hPa 0,0 l/m 0 min 0 min 0,0 UV-I 0 W/m 15,4 km/h (3 Bft)
12.12.2013 19:22 1,8 C 0,6 C 94 % 1027,3 hPa 0,0 l/m 0 min 0 min 0,0 UV-I 0 W/m 18,0 km/h (3 Bft)
12.12.2013 19:24 1,8 C 0,6 C 94 % 1027,3 hPa 0,0 l/m 0 min 0 min 0,0 UV-I 0 W/m 15,4 km/h (3 Bft)
12.12.2013 19:26 1,8 C 0,6 C 94 % 1027,3 hPa 0,0 l/m 0 min 0 min 0,0 UV-I 0 W/m 10,3 km/h (2 Bft)
12.12.2013 19:28 1,7 C 0,6 C 94 % 1027,3 hPa 0,0 l/m 0 min 0 min 0,0 UV-I 0 W/m 10,3 km/h (2 Bft)
12.12.2013 19:30 1,7 C 0,6 C 94 % 1027,3 hPa 0,0 l/m 0 min 0 min 0,0 UV-I 0 W/m 12,9 km/h (3 Bft)
12.12.2013 19:32 1,7 C 0,6 C 94 % 1027,3 hPa 0,0 l/m 0 min 0 min 0,0 UV-I 0 W/m 12,9 km/h (3 Bft)
12.12.2013 19:34 1,7 C 0,6 C 94 % 1027,3 hPa 0,0 l/m 0 min 0 min 0,0 UV-I 0 W/m 5,1 km/h (1 Bft)
12.12.2013 19:36 1,6 C 0,6 C 94 % 1027,3 hPa 0,0 l/m 0 min 0 min 0,0 UV-I 0 W/m 12,9 km/h (3 Bft)
12.12.2013 19:38 1,6 C 0,6 C 94 % 1027,3 hPa 0,0 l/m 0 min 0 min 0,0 UV-I 0 W/m 18,0 km/h (3 Bft)
12.12.2013 19:40 1,6 C 0,6 C 94 % 1027,3 hPa 0,0 l/m 0 min 0 min 0,0 UV-I 0 W/m 18,0 km/h (3 Bft)
12.12.2013 19:42 1,6 C 0,6 C 94 % 1027,3 hPa 0,0 l/m 0 min 0 min 0,0 UV-I 0 W/m 15,4 km/h (3 Bft)
12.12.2013 19:44 1,6 C 0,6 C 94 % 1027,3 hPa 0,0 l/m 0 min 0 min 0,0 UV-I 0 W/m 10,3 km/h (2 Bft)
12.12.2013 19:46 1,6 C 0,6 C 94 % 1027,3 hPa 0,0 l/m 0 min 0 min 0,0 UV-I 0 W/m 18,0 km/h (3 Bft)
12.12.2013 19:48 1,6 C 0,6 C 94 % 1027,2 hPa 0,0 l/m 0 min 0 min 0,0 UV-I 0 W/m 10,3 km/h (2 Bft)
12.12.2013 19:50 1,5 C 0,6 C 94 % 1027,3 hPa 0,0 l/m 0 min 0 min 0,0 UV-I 0 W/m 12,9 km/h (3 Bft)
12.12.2013 19:52 1,5 C 0,6 C 94 % 1027,3 hPa 0,0 l/m 0 min 0 min 0,0 UV-I 0 W/m 15,4 km/h (3 Bft)
12.12.2013 19:54 1,5 C 0,6 C 94 % 1027,3 hPa 0,0 l/m 0 min 0 min 0,0 UV-I 0 W/m 28,3 km/h (4 Bft)
12.12.2013 19:56 1,4 C 0,6 C 94 % 1027,2 hPa 0,0 l/m 0 min 0 min 0,0 UV-I 0 W/m 12,9 km/h (3 Bft)
12.12.2013 19:58 1,4 C 0,6 C 94 % 1027,2 hPa 0,0 l/m 0 min 0 min 0,0 UV-I 0 W/m 10,3 km/h (2 Bft)
12.12.2013 20:00 1,4 C 0,0 C 94 % 1027,3 hPa 0,0 l/m 0 min 0 min 0,0 UV-I 0 W/m 15,4 km/h (3 Bft)
12.12.2013 20:02 1,4 C 0,0 C 94 % 1027,2 hPa 0,0 l/m 0 min 0 min 0,0 UV-I 0 W/m 15,4 km/h (3 Bft)
12.12.2013 20:04 1,4 C 0,0 C 94 % 1027,2 hPa 0,0 l/m 0 min 0 min 0,0 UV-I 0 W/m 15,4 km/h (3 Bft)
12.12.2013 20:06 1,4 C 0,0 C 94 % 1027,2 hPa 0,0 l/m 0 min 0 min 0,0 UV-I 0 W/m 10,3 km/h (2 Bft)
12.12.2013 20:08 1,4 C 0,0 C 94 % 1027,2 hPa 0,0 l/m 0 min 0 min 0,0 UV-I 0 W/m 10,3 km/h (2 Bft)
12.12.2013 20:10 1,4 C 0,0 C 94 % 1027,2 hPa 0,0 l/m 0 min 0 min 0,0 UV-I 0 W/m 20,6 km/h (4 Bft)
12.12.2013 20:12 1,4 C 0,0 C 94 % 1027,2 hPa 0,0 l/m 0 min 0 min 0,0 UV-I 0 W/m 18,0 km/h (3 Bft)
12.12.2013 20:14 1,4 C 0,0 C 94 % 1027,2 hPa 0,0 l/m 0 min 0 min 0,0 UV-I 0 W/m 10,3 km/h (2 Bft)
12.12.2013 20:16 1,3 C 0,0 C 94 % 1027,3 hPa 0,0 l/m 0 min 0 min 0,0 UV-I 0 W/m 15,4 km/h (3 Bft)
12.12.2013 20:18 1,3 C 0,0 C 94 % 1027,3 hPa 0,0 l/m 0 min 0 min 0,0 UV-I 0 W/m 18,0 km/h (3 Bft)
12.12.2013 20:20 1,3 C 0,0 C 94 % 1027,2 hPa 0,0 l/m 0 min 0 min 0,0 UV-I 0 W/m 20,6 km/h (4 Bft)
12.12.2013 20:22 1,3 C 0,0 C 94 % 1027,2 hPa 0,0 l/m 0 min 0 min 0,0 UV-I 0 W/m 15,4 km/h (3 Bft)
12.12.2013 20:24 1,3 C 0,0 C 94 % 1027,1 hPa 0,0 l/m 0 min 0 min 0,0 UV-I 0 W/m 15,4 km/h (3 Bft)
12.12.2013 20:26 1,3 C 0,0 C 94 % 1027,2 hPa 0,0 l/m 0 min 0 min 0,0 UV-I 0 W/m 18,0 km/h (3 Bft)
12.12.2013 20:28 1,3 C 0,0 C 94 % 1027,1 hPa 0,0 l/m 0 min 0 min 0,0 UV-I 0 W/m 10,3 km/h (2 Bft)
12.12.2013 20:30 1,2 C 0,0 C 94 % 1027,1 hPa 0,0 l/m 0 min 0 min 0,0 UV-I 0 W/m 18,0 km/h (3 Bft)
12.12.2013 20:32 1,2 C 0,0 C 94 % 1027,1 hPa 0,0 l/m 0 min 0 min 0,0 UV-I 0 W/m 12,9 km/h (3 Bft)
12.12.2013 20:34 1,2 C 0,0 C 95 % 1027,1 hPa 0,0 l/m 0 min 0 min 0,0 UV-I 0 W/m 10,3 km/h (2 Bft)
12.12.2013 20:36 1,2 C 0,0 C 95 % 1027,2 hPa 0,0 l/m 0 min 0 min 0,0 UV-I 0 W/m 12,9 km/h (3 Bft)
12.12.2013 20:38 1,2 C 0,0 C 95 % 1027,1 hPa 0,0 l/m 0 min 0 min 0,0 UV-I 0 W/m 12,9 km/h (3 Bft)
12.12.2013 20:40 1,2 C 0,0 C 95 % 1027,1 hPa 0,0 l/m 0 min 0 min 0,0 UV-I 0 W/m 12,9 km/h (3 Bft)
12.12.2013 20:42 1,1 C 0,0 C 95 % 1027,0 hPa 0,0 l/m 0 min 0 min 0,0 UV-I 0 W/m 18,0 km/h (3 Bft)
12.12.2013 20:44 1,1 C 0,0 C 95 % 1027,1 hPa 0,0 l/m 0 min 0 min 0,0 UV-I 0 W/m 18,0 km/h (3 Bft)
12.12.2013 20:46 1,1 C 0,0 C 95 % 1027,1 hPa 0,0 l/m 0 min 0 min 0,0 UV-I 0 W/m 15,4 km/h (3 Bft)
12.12.2013 20:48 1,1 C 0,0 C 95 % 1027,0 hPa 0,0 l/m 0 min 0 min 0,0 UV-I 0 W/m 10,3 km/h (2 Bft)
12.12.2013 20:50 1,1 C 0,0 C 94 % 1027,0 hPa 0,0 l/m 0 min 0 min 0,0 UV-I 0 W/m 18,0 km/h (3 Bft)
12.12.2013 20:52 1,1 C 0,0 C 94 % 1027,0 hPa 0,0 l/m 0 min 0 min 0,0 UV-I 0 W/m 12,9 km/h (3 Bft)
12.12.2013 20:54 1,1 C 0,0 C 94 % 1027,0 hPa 0,0 l/m 0 min 0 min 0,0 UV-I 0 W/m 15,4 km/h (3 Bft)
12.12.2013 20:56 1,0 C 0,0 C 94 % 1027,0 hPa 0,0 l/m 0 min 0 min 0,0 UV-I 0 W/m 12,9 km/h (3 Bft)
12.12.2013 20:58 1,0 C 0,0 C 95 % 1027,0 hPa 0,0 l/m 0 min 0 min 0,0 UV-I 0 W/m 10,3 km/h (2 Bft)
12.12.2013 21:00 1,0 C 0,0 C 95 % 1027,0 hPa 0,0 l/m 0 min 0 min 0,0 UV-I 0 W/m 10,3 km/h (2 Bft)
12.12.2013 21:02 1,0 C 0,0 C 95 % 1027,0 hPa 0,0 l/m 0 min 0 min 0,0 UV-I 0 W/m 18,0 km/h (3 Bft)
12.12.2013 21:04 0,9 C 0,0 C 95 % 1027,0 hPa 0,0 l/m 0 min 0 min 0,0 UV-I 0 W/m 15,4 km/h (3 Bft)
12.12.2013 21:06 0,9 C 0,0 C 95 % 1026,9 hPa 0,0 l/m 0 min 0 min 0,0 UV-I 0 W/m 12,9 km/h (3 Bft)
12.12.2013 21:08 0,9 C 0,0 C 95 % 1026,9 hPa 0,0 l/m 0 min 0 min 0,0 UV-I 0 W/m 10,3 km/h (2 Bft)
12.12.2013 21:10 0,9 C 0,0 C 95 % 1026,9 hPa 0,0 l/m 0 min 0 min 0,0 UV-I 0 W/m 10,3 km/h (2 Bft)
12.12.2013 21:12 0,9 C 0,0 C 95 % 1027,0 hPa 0,0 l/m 0 min 0 min 0,0 UV-I 0 W/m 10,3 km/h (2 Bft)
12.12.2013 21:14 0,9 C 0,0 C 95 % 1027,0 hPa 0,0 l/m 0 min 0 min 0,0 UV-I 0 W/m 10,3 km/h (2 Bft)
12.12.2013 21:16 0,9 C 0,0 C 95 % 1027,0 hPa 0,0 l/m 0 min 0 min 0,0 UV-I 0 W/m 15,4 km/h (3 Bft)
12.12.2013 21:18 0,9 C -0,6 C 95 % 1027,0 hPa 0,0 l/m 0 min 0 min 0,0 UV-I 0 W/m 12,9 km/h (3 Bft)
12.12.2013 21:20 0,9 C -0,6 C 95 % 1026,9 hPa 0,0 l/m 0 min 0 min 0,0 UV-I 0 W/m 18,0 km/h (3 Bft)
12.12.2013 21:22 0,9 C -0,6 C 95 % 1026,9 hPa 0,0 l/m 0 min 0 min 0,0 UV-I 0 W/m 10,3 km/h (2 Bft)
12.12.2013 21:24 0,8 C -0,6 C 95 % 1026,9 hPa 0,0 l/m 0 min 0 min 0,0 UV-I 0 W/m 12,9 km/h (3 Bft)
12.12.2013 21:26 0,8 C -0,6 C 95 % 1026,9 hPa 0,0 l/m 0 min 0 min 0,0 UV-I 0 W/m 15,4 km/h (3 Bft)
12.12.2013 21:28 0,8 C -0,6 C 95 % 1026,9 hPa 0,0 l/m 0 min 0 min 0,0 UV-I 0 W/m 15,4 km/h (3 Bft)
12.12.2013 21:30 0,8 C -0,6 C 95 % 1026,9 hPa 0,0 l/m 0 min 0 min 0,0 UV-I 0 W/m 12,9 km/h (3 Bft)
12.12.2013 21:32 0,8 C 0,0 C 95 % 1027,0 hPa 0,0 l/m 0 min 0 min 0,0 UV-I 0 W/m 18,0 km/h (3 Bft)
12.12.2013 21:34 0,8 C 0,0 C 95 % 1027,0 hPa 0,0 l/m 0 min 0 min 0,0 UV-I 0 W/m 12,9 km/h (3 Bft)
12.12.2013 21:36 0,8 C 0,0 C 95 % 1027,0 hPa 0,0 l/m 0 min 0 min 0,0 UV-I 0 W/m 18,0 km/h (3 Bft)
12.12.2013 21:38 0,8 C 0,0 C 95 % 1027,0 hPa 0,0 l/m 0 min 0 min 0,0 UV-I 0 W/m 10,3 km/h (2 Bft)
12.12.2013 21:40 0,8 C -0,6 C 95 % 1027,0 hPa 0,0 l/m 0 min 0 min 0,0 UV-I 0 W/m 12,9 km/h (3 Bft)
12.12.2013 21:42 0,8 C -0,6 C 95 % 1027,0 hPa 0,0 l/m 0 min 0 min 0,0 UV-I 0 W/m 15,4 km/h (3 Bft)
12.12.2013 21:44 0,8 C -0,6 C 95 % 1027,0 hPa 0,0 l/m 0 min 0 min 0,0 UV-I 0 W/m 20,6 km/h (4 Bft)
12.12.2013 21:46 0,8 C -0,6 C 95 % 1027,0 hPa 0,0 l/m 0 min 0 min 0,0 UV-I 0 W/m 15,4 km/h (3 Bft)
12.12.2013 21:48 0,8 C -0,6 C 95 % 1027,1 hPa 0,0 l/m 0 min 0 min 0,0 UV-I 0 W/m 18,0 km/h (3 Bft)
12.12.2013 21:50 0,8 C -0,6 C 95 % 1027,0 hPa 0,0 l/m 0 min 0 min 0,0 UV-I 0 W/m 10,3 km/h (2 Bft)
12.12.2013 21:52 0,8 C -0,6 C 95 % 1027,0 hPa 0,0 l/m 0 min 0 min 0,0 UV-I 0 W/m 15,4 km/h (3 Bft)
12.12.2013 21:54 0,8 C -0,6 C 95 % 1027,0 hPa 0,0 l/m 0 min 0 min 0,0 UV-I 0 W/m 20,6 km/h (4 Bft)
12.12.2013 21:56 0,8 C -0,6 C 95 % 1027,0 hPa 0,0 l/m 0 min 0 min 0,0 UV-I 0 W/m 18,0 km/h (3 Bft)
12.12.2013 21:58 0,8 C -0,6 C 95 % 1027,0 hPa 0,0 l/m 0 min 0 min 0,0 UV-I 0 W/m 15,4 km/h (3 Bft)
12.12.2013 22:00 0,8 C -0,6 C 95 % 1027,0 hPa 0,0 l/m 0 min 0 min 0,0 UV-I 0 W/m 10,3 km/h (2 Bft)
12.12.2013 22:02 0,8 C -0,6 C 95 % 1026,9 hPa 0,0 l/m 0 min 0 min 0,0 UV-I 0 W/m 15,4 km/h (3 Bft)
12.12.2013 22:04 0,8 C -0,6 C 95 % 1026,9 hPa 0,0 l/m 0 min 0 min 0,0 UV-I 0 W/m 18,0 km/h (3 Bft)
12.12.2013 22:06 0,8 C -0,6 C 95 % 1026,9 hPa 0,0 l/m 0 min 0 min 0,0 UV-I 0 W/m 18,0 km/h (3 Bft)
12.12.2013 22:08 0,8 C 0,0 C 95 % 1026,9 hPa 0,0 l/m 0 min 0 min 0,0 UV-I 0 W/m 15,4 km/h (3 Bft)
12.12.2013 22:10 0,8 C -0,6 C 95 % 1026,9 hPa 0,0 l/m 0 min 0 min 0,0 UV-I 0 W/m 15,4 km/h (3 Bft)
12.12.2013 22:12 0,8 C -0,6 C 95 % 1027,0 hPa 0,0 l/m 0 min 0 min 0,0 UV-I 0 W/m 15,4 km/h (3 Bft)
12.12.2013 22:14 0,8 C -0,6 C 95 % 1027,0 hPa 0,0 l/m 0 min 0 min 0,0 UV-I 0 W/m 18,0 km/h (3 Bft)
12.12.2013 22:16 0,8 C -0,6 C 95 % 1026,9 hPa 0,0 l/m 0 min 0 min 0,0 UV-I 0 W/m 12,9 km/h (3 Bft)
12.12.2013 22:18 0,8 C -0,6 C 95 % 1027,0 hPa 0,0 l/m 0 min 0 min 0,0 UV-I 0 W/m 15,4 km/h (3 Bft)
12.12.2013 22:20 0,8 C -0,6 C 95 % 1026,9 hPa 0,0 l/m 0 min 0 min 0,0 UV-I 0 W/m 15,4 km/h (3 Bft)
12.12.2013 22:22 0,8 C -0,6 C 95 % 1026,9 hPa 0,0 l/m 0 min 0 min 0,0 UV-I 0 W/m 15,4 km/h (3 Bft)
12.12.2013 22:24 0,8 C -0,6 C 95 % 1026,9 hPa 0,0 l/m 0 min 0 min 0,0 UV-I 0 W/m 18,0 km/h (3 Bft)
12.12.2013 22:26 0,8 C -0,6 C 95 % 1026,9 hPa 0,0 l/m 0 min 0 min 0,0 UV-I 0 W/m 18,0 km/h (3 Bft)
12.12.2013 22:28 0,8 C -0,6 C 95 % 1027,0 hPa 0,0 l/m 0 min 0 min 0,0 UV-I 0 W/m 12,9 km/h (3 Bft)
12.12.2013 22:30 0,8 C -0,6 C 95 % 1027,0 hPa 0,0 l/m 0 min 0 min 0,0 UV-I 0 W/m 20,6 km/h (4 Bft)
12.12.2013 22:32 0,8 C -0,6 C 95 % 1027,1 hPa 0,0 l/m 0 min 0 min 0,0 UV-I 0 W/m 20,6 km/h (4 Bft)
12.12.2013 22:34 0,8 C -0,6 C 95 % 1027,0 hPa 0,0 l/m 0 min 0 min 0,0 UV-I 0 W/m 18,0 km/h (3 Bft)
12.12.2013 22:36 0,8 C -0,6 C 95 % 1027,1 hPa 0,0 l/m 0 min 0 min 0,0 UV-I 0 W/m 15,4 km/h (3 Bft)
12.12.2013 22:38 0,7 C -0,6 C 95 % 1027,1 hPa 0,0 l/m 0 min 0 min 0,0 UV-I 0 W/m 23,2 km/h (4 Bft)
12.12.2013 22:40 0,7 C -0,6 C 95 % 1027,1 hPa 0,0 l/m 0 min 0 min 0,0 UV-I 0 W/m 20,6 km/h (4 Bft)
12.12.2013 22:42 0,7 C -0,6 C 95 % 1027,0 hPa 0,0 l/m 0 min 0 min 0,0 UV-I 0 W/m 15,4 km/h (3 Bft)
12.12.2013 22:44 0,7 C -0,6 C 95 % 1027,0 hPa 0,0 l/m 0 min 0 min 0,0 UV-I 0 W/m 15,4 km/h (3 Bft)
12.12.2013 22:46 0,7 C -0,6 C 95 % 1027,0 hPa 0,0 l/m 0 min 0 min 0,0 UV-I 0 W/m 18,0 km/h (3 Bft)
12.12.2013 22:48 0,7 C -0,6 C 95 % 1027,0 hPa 0,0 l/m 0 min 0 min 0,0 UV-I 0 W/m 12,9 km/h (3 Bft)
12.12.2013 22:50 0,7 C -0,6 C 95 % 1027,0 hPa 0,0 l/m 0 min 0 min 0,0 UV-I 0 W/m 15,4 km/h (3 Bft)
12.12.2013 22:52 0,7 C -0,6 C 95 % 1027,0 hPa 0,0 l/m 0 min 0 min 0,0 UV-I 0 W/m 18,0 km/h (3 Bft)
12.12.2013 22:54 0,7 C -0,6 C 95 % 1027,0 hPa 0,0 l/m 0 min 0 min 0,0 UV-I 0 W/m 15,4 km/h (3 Bft)
12.12.2013 22:56 0,7 C -0,6 C 95 % 1027,1 hPa 0,0 l/m 0 min 0 min 0,0 UV-I 0 W/m 12,9 km/h (3 Bft)
12.12.2013 22:58 0,7 C -0,6 C 95 % 1027,0 hPa 0,0 l/m 0 min 0 min 0,0 UV-I 0 W/m 12,9 km/h (3 Bft)
12.12.2013 23:00 0,7 C -0,6 C 95 % 1027,0 hPa 0,0 l/m 0 min 0 min 0,0 UV-I 0 W/m 12,9 km/h (3 Bft)
12.12.2013 23:02 0,7 C -0,6 C 95 % 1027,0 hPa 0,0 l/m 0 min 0 min 0,0 UV-I 0 W/m 23,2 km/h (4 Bft)
12.12.2013 23:04 0,7 C -0,6 C 95 % 1027,0 hPa 0,0 l/m 0 min 0 min 0,0 UV-I 0 W/m 30,9 km/h (5 Bft)
12.12.2013 23:06 0,7 C -0,6 C 95 % 1027,0 hPa 0,0 l/m 0 min 0 min 0,0 UV-I 0 W/m 18,0 km/h (3 Bft)
12.12.2013 23:08 0,7 C -0,6 C 95 % 1027,0 hPa 0,0 l/m 0 min 0 min 0,0 UV-I 0 W/m 10,3 km/h (2 Bft)
12.12.2013 23:10 0,7 C -0,6 C 95 % 1027,0 hPa 0,0 l/m 0 min 0 min 0,0 UV-I 0 W/m 18,0 km/h (3 Bft)
12.12.2013 23:12 0,7 C -0,6 C 95 % 1026,9 hPa 0,0 l/m 0 min 0 min 0,0 UV-I 0 W/m 12,9 km/h (3 Bft)
12.12.2013 23:14 0,7 C -0,6 C 95 % 1026,9 hPa 0,0 l/m 0 min 0 min 0,0 UV-I 0 W/m 18,0 km/h (3 Bft)
12.12.2013 23:16 0,7 C -0,6 C 95 % 1026,9 hPa 0,0 l/m 0 min 0 min 0,0 UV-I 0 W/m 20,6 km/h (4 Bft)
12.12.2013 23:18 0,7 C -0,6 C 95 % 1026,8 hPa 0,0 l/m 0 min 0 min 0,0 UV-I 0 W/m 15,4 km/h (3 Bft)
12.12.2013 23:20 0,7 C -0,6 C 95 % 1026,8 hPa 0,0 l/m 0 min 0 min 0,0 UV-I 0 W/m 12,9 km/h (3 Bft)
12.12.2013 23:22 0,7 C -0,6 C 95 % 1026,8 hPa 0,0 l/m 0 min 0 min 0,0 UV-I 0 W/m 12,9 km/h (3 Bft)
12.12.2013 23:24 0,7 C -0,6 C 95 % 1026,8 hPa 0,0 l/m 0 min 0 min 0,0 UV-I 0 W/m 23,2 km/h (4 Bft)
12.12.2013 23:26 0,7 C -0,6 C 95 % 1026,8 hPa 0,0 l/m 0 min 0 min 0,0 UV-I 0 W/m 15,4 km/h (3 Bft)
12.12.2013 23:28 0,7 C -0,6 C 95 % 1026,8 hPa 0,0 l/m 0 min 0 min 0,0 UV-I 0 W/m 18,0 km/h (3 Bft)
12.12.2013 23:30 0,7 C -0,6 C 95 % 1026,7 hPa 0,0 l/m 0 min 0 min 0,0 UV-I 0 W/m 15,4 km/h (3 Bft)
12.12.2013 23:32 0,7 C -0,6 C 95 % 1026,8 hPa 0,0 l/m 0 min 0 min 0,0 UV-I 0 W/m 15,4 km/h (3 Bft)
12.12.2013 23:34 0,7 C -0,6 C 95 % 1026,8 hPa 0,0 l/m 0 min 0 min 0,0 UV-I 0 W/m 15,4 km/h (3 Bft)
12.12.2013 23:36 0,7 C -0,6 C 95 % 1026,8 hPa 0,0 l/m 0 min 0 min 0,0 UV-I 0 W/m 23,2 km/h (4 Bft)
12.12.2013 23:38 0,7 C -0,6 C 95 % 1026,7 hPa 0,0 l/m 0 min 0 min 0,0 UV-I 0 W/m 20,6 km/h (4 Bft)
12.12.2013 23:40 0,7 C -0,6 C 95 % 1026,8 hPa 0,0 l/m 0 min 0 min 0,0 UV-I 0 W/m 20,6 km/h (4 Bft)
12.12.2013 23:42 0,7 C -0,6 C 95 % 1026,8 hPa 0,0 l/m 0 min 0 min 0,0 UV-I 0 W/m 20,6 km/h (4 Bft)
12.12.2013 23:44 0,7 C -0,6 C 95 % 1026,7 hPa 0,0 l/m 0 min 0 min 0,0 UV-I 0 W/m 23,2 km/h (4 Bft)
12.12.2013 23:46 0,7 C -0,6 C 95 % 1026,5 hPa 0,0 l/m 0 min 0 min 0,0 UV-I 0 W/m 20,6 km/h (4 Bft)
12.12.2013 23:48 0,7 C -0,6 C 95 % 1026,5 hPa 0,0 l/m 0 min 0 min 0,0 UV-I 0 W/m 15,4 km/h (3 Bft)
12.12.2013 23:50 0,7 C -0,6 C 95 % 1026,5 hPa 0,0 l/m 0 min 0 min 0,0 UV-I 0 W/m 20,6 km/h (4 Bft)
12.12.2013 23:52 0,7 C -0,6 C 95 % 1026,4 hPa 0,0 l/m 0 min 0 min 0,0 UV-I 0 W/m 15,4 km/h (3 Bft)
12.12.2013 23:54 0,7 C -0,6 C 95 % 1026,5 hPa 0,0 l/m 0 min 0 min 0,0 UV-I 0 W/m 15,4 km/h (3 Bft)
12.12.2013 23:56 0,7 C -0,6 C 95 % 1026,5 hPa 0,0 l/m 0 min 0 min 0,0 UV-I 0 W/m 23,2 km/h (4 Bft)
12.12.2013 23:58 0,7 C -0,6 C 95 % 1026,5 hPa 0,0 l/m 0 min 0 min 0,0 UV-I 0 W/m 20,6 km/h (4 Bft)
_ Min-Zeit 22:20 21:18 13:34 23:52 - - - - - 03:22
Minimum _ 0,7 C -0,6 C 87 % 1026,4 hPa - - - - - 0,0 km/h (0 Bft)
_ Max-Zeit 14:10 13:30 00:00 00:00 02:20 10:30 00:00 00:00 13:22 10:32
Maximum _ 6,1 C 5,0 C 98 % 1031,2 hPa 0,2 l/m 2 min 0 min 0,0 UV-I 258 W/m 36,0 km/h
SO (5 Bft)
Durchschnitt _ 3,5 C 2,5 C 95 % 1028,7 hPa #0,2 l/m #2:36 h #0 min. 0,0 UV-I 98 W/m 15,2 km/h (3 Bft)
© 2013 W. Hausmann